GEFSSGP_500_meanwind_210.txt.gz
Wind_Speed
17 17 18 19 20 18 19 21 21 21 19 19 19 18 17 17 16 16 15 13 12 11 11 11 12 12 12 12 12 12 11 11 11 10 9 9 8 8 8 8 7 7 8 8 8 8 8 9 9
16 16 17 18 18 18 21 22 22 20 19 19 19 18 17 16 16 15 14 12 12 11 11 11 11 11 12 12 11 11 11 10 10 9 9 8 8 8 8 7 7 7 8 7 7 8 8 9 9
15 15 16 17 17 19 21 22 22 21 20 19 19 18 16 15 15 14 14 12 11 11 11 11 11 11 11 11 10 10 10 9 9 9 8 8 8 8 7 7 7 7 7 7 7 7 8 8 8
13 13 14 15 17 19 20 22 22 21 20 20 19 19 17 15 15 14 14 13 11 11 11 12 12 11 10 10 10 10 9 8 9 9 8 8 7 7 7 7 7 8 7 6 6 6 7 7 7
12 12 13 14 17 18 19 20 21 21 20 19 19 19 16 15 14 14 14 13 12 12 13 12 12 12 11 10 10 10 9 8 8 8 7 7 7 8 8 7 7 6 6 6 6 6 6 6 7
10 11 12 14 16 17 18 20 21 20 19 18 18 18 16 15 14 14 13 13 12 12 13 13 12 12 11 11 10 10 9 9 8 8 7 7 7 6 6 6 6 5 6 6 6 6 6 7 7
8 10 12 14 15 16 18 19 20 20 18 17 17 17 16 15 15 14 13 12 12 13 13 13 13 12 12 11 11 10 9 9 8 8 7 7 6 6 6 7 6 6 6 6 6 6 7 6 7
7 9 11 13 14 15 16 18 19 18 18 17 17 17 16 15 15 14 14 13 13 13 13 13 12 12 11 11 11 10 10 9 8 8 7 8 8 7 7 7 7 7 7 6 7 7 7 7 6
5 7 10 12 13 14 15 17 17 17 17 16 16 16 15 15 14 14 14 13 13 13 12 12 12 12 11 11 11 11 10 10 9 8 8 8 9 8 8 7 7 7 7 7 7 7 7 6 6
4 5 8 10 12 12 14 15 16 16 16 16 15 15 14 14 14 14 13 13 13 13 12 12 12 12 11 11 11 10 10 10 9 8 8 8 8 8 8 7 7 7 7 7 7 7 7 6 6
2 4 5 7 10 11 12 14 15 15 16 15 15 14 14 13 13 13 13 13 13 12 12 11 11 11 10 10 10 10 10 10 9 9 8 7 7 7 7 7 6 6 6 6 6 5 5 5 5
1 1 3 6 8 10 11 12 13 15 15 14 14 14 13 12 13 12 12 13 13 12 11 11 10 10 10 9 9 9 9 8 8 8 7 7 6 6 6 5 5 5 5 5 5 4 4 4 4
3 1 1 4 6 8 9 10 12 13 13 13 12 13 13 13 13 12 12 12 12 12 11 10 10 9 9 9 9 9 8 8 8 7 6 5 5 4 4 4 4 4 4 4 4 3 3 3 3
5 3 2 1 4 6 8 9 9 11 12 12 12 12 12 12 12 12 12 11 11 11 11 10 9 9 9 9 9 9 8 7 7 7 6 4 4 3 3 2 2 2 3 3 3 2 2 2 3
7 6 4 2 1 5 7 8 8 9 10 10 11 11 11 11 11 11 11 11 10 10 10 9 9 8 8 8 8 8 7 7 6 6 5 4 3 3 2 1 1 1 2 2 2 1 1 1 1
10 9 7 4 2 2 5 7 7 7 8 8 9 10 10 11 10 10 10 9 9 9 9 8 8 8 7 7 7 7 6 6 6 5 5 4 3 2 2 1 1 1 1 1 1 1 1 0 1
13 11 9 8 5 2 1 4 5 5 6 7 8 9 9 10 10 10 10 9 9 8 8 8 8 7 7 7 7 6 6 5 5 5 4 3 2 2 2 1 1 0 1 1 1 1 1 1 2
15 14 12 10 8 5 3 1 3 4 5 5 6 8 8 8 9 9 8 9 8 7 6 7 7 7 6 6 6 6 6 6 5 4 4 3 3 2 2 1 1 1 2 3 3 3 2 2 3
18 17 15 13 11 9 7 4 4 4 4 4 4 5 6 7 8 8 8 8 7 6 6 6 7 6 6 6 6 6 6 6 5 4 3 3 3 3 2 1 1 2 3 3 4 4 4 4 4
20 19 17 16 14 12 10 8 6 5 4 4 4 4 6 8 8 7 7 7 8 7 5 6 6 6 6 6 6 7 6 6 5 4 4 4 4 4 4 3 3 3 3 4 4 5 5 5 5
21 20 20 19 17 16 13 10 8 6 5 4 4 4 6 6 6 6 6 7 7 6 6 6 5 5 6 6 6 7 6 6 6 5 4 4 5 5 5 5 4 4 3 4 5 5 6 6 7
23 22 23 22 20 19 17 13 10 8 6 5 5 5 5 5 5 6 6 6 6 6 6 6 5 5 6 6 6 7 7 7 6 5 5 5 6 6 6 6 5 5 5 6 6 6 7 7 7
26 26 25 24 23 21 18 16 12 10 8 6 6 6 6 5 5 6 6 6 6 6 6 6 6 6 6 7 7 7 8 7 7 6 7 7 7 6 6 7 6 6 6 7 7 7 7 8 9
29 28 27 26 25 23 20 17 13 11 10 9 8 8 7 7 6 7 7 7 8 7 7 7 7 7 7 8 8 8 8 8 7 7 7 8 8 8 7 8 8 7 7 8 8 8 8 9 10
31 30 29 28 28 24 21 19 14 13 12 11 10 9 8 8 8 8 8 8 7 7 7 7 8 8 8 9 9 9 10 9 8 8 8 9 9 9 8 8 9 9 9 9 10 9 9 10 10
32 31 30 30 28 25 23 21 17 15 14 13 11 11 10 9 9 9 8 7 7 7 8 8 9 9 10 10 9 10 10 10 9 9 9 9 10 9 8 9 9 10 10 10 10 10 11 11 11
33 33 31 31 29 28 25 23 20 18 15 13 12 11 11 10 9 9 9 9 9 9 10 10 11 11 12 11 10 11 11 11 11 11 10 10 10 9 9 9 9 10 11 12 11 11 11 12 13
35 33 33 32 31 29 27 24 21 19 16 14 12 11 11 10 9 10 10 10 10 10 11 12 12 12 13 12 12 12 12 12 12 12 11 11 11 10 9 9 9 10 11 11 12 13 13 14 14
35 35 34 33 32 30 27 24 21 19 17 14 13 12 12 12 11 10 10 10 11 12 12 12 13 13 13 13 13 13 13 13 12 12 12 11 11 11 10 10 11 11 11 12 12 13 14 15 15
35 34 33 33 31 29 28 24 22 20 19 16 15 15 14 13 11 11 10 10 12 13 13 13 14 14 14 13 12 13 14 14 13 13 12 12 12 11 11 11 12 12 12 12 12 12 13 14 14

GEFSSGP_500_meanwind_216.txt.gz
Wind_Speed
19 19 19 18 21 18 17 18 19 19 18 18 17 16 16 16 16 16 15 14 13 12 12 11 11 11 11 10 10 11 12 12 12 11 11 11 10 10 10 11 11 11 11 11 11 11 10 10 10
18 18 18 19 19 16 18 19 19 19 19 18 17 17 16 16 15 15 14 14 13 12 11 10 10 10 10 10 10 11 11 11 11 11 10 10 10 10 10 11 11 11 11 11 11 11 10 10 9
17 18 17 18 16 16 18 19 19 19 19 18 18 17 17 16 15 14 13 13 13 12 11 10 10 10 10 10 10 10 10 11 11 10 10 10 10 10 10 10 11 11 11 10 11 10 10 9 9
16 16 16 15 15 16 18 18 19 20 20 19 18 18 18 17 15 14 13 13 12 11 10 9 9 9 9 10 10 10 10 11 10 10 9 10 10 10 10 11 11 10 9 10 10 10 9 9 8
15 16 14 13 13 15 17 18 19 20 20 19 19 18 17 16 15 14 14 13 13 12 10 10 9 9 10 10 10 10 10 10 10 10 9 9 9 9 9 9 9 9 9 10 9 9 9 9 8
14 15 12 12 13 14 16 16 18 18 19 18 18 18 17 16 15 14 14 13 13 12 11 11 11 10 10 10 10 10 9 9 9 10 10 9 9 8 8 8 8 9 9 9 8 8 8 8 7
13 13 11 12 12 14 15 15 17 17 18 18 18 18 18 17 15 14 14 13 13 12 12 12 11 11 11 11 10 10 9 9 9 9 9 9 9 8 7 7 8 8 8 7 7 7 7 7 7
12 12 10 11 12 13 14 15 16 17 17 17 17 17 17 17 16 14 14 13 13 12 12 12 12 12 11 11 10 9 9 8 8 8 8 8 8 8 8 8 8 8 7 7 7 7 7 6 6
11 11 9 10 12 12 13 14 15 15 16 16 17 16 16 16 15 14 14 13 13 12 12 11 11 11 11 11 11 10 9 9 8 8 8 7 8 8 8 7 8 8 7 7 7 7 6 6 6
10 8 8 10 11 12 13 14 14 15 16 16 16 16 15 15 14 13 13 13 13 12 12 11 11 11 11 10 10 10 10 9 9 9 8 8 8 7 7 7 8 8 7 7 7 6 6 6 6
7 8 8 9 10 11 12 13 13 14 15 15 15 15 14 14 13 12 12 12 12 12 11 11 10 10 10 10 10 10 9 9 8 9 8 7 7 6 7 7 7 7 7 7 6 6 5 5 5
6 6 7 8 8 9 10 11 12 13 13 13 14 14 13 13 12 12 11 11 11 11 10 10 9 9 9 9 9 9 8 8 7 7 7 7 6 6 6 6 6 6 6 6 5 5 4 4 4
4 5 6 6 7 8 8 9 10 11 11 12 12 12 13 12 11 11 11 10 10 10 9 9 9 9 9 9 8 8 8 7 7 6 6 6 6 6 6 5 5 5 5 5 4 4 4 4 3
4 4 3 4 5 6 6 7 8 9 10 10 10 11 11 12 11 10 10 10 9 9 8 8 8 8 8 8 8 8 7 6 6 5 5 5 5 5 4 4 3 3 3 3 3 3 3 2 2
5 4 3 3 3 4 5 6 7 7 8 8 9 9 10 10 10 9 9 9 9 8 8 7 7 7 7 7 7 7 7 6 5 5 4 4 4 3 3 2 2 2 2 2 2 1 2 1 1
7 5 4 3 3 3 4 4 5 6 7 7 8 8 9 9 9 9 8 8 8 8 8 7 6 6 6 6 6 7 6 6 4 4 4 3 3 2 2 1 1 1 1 1 1 1 1 1 1
9 8 7 6 5 3 2 2 3 4 5 6 6 7 7 8 8 8 8 7 8 8 8 7 6 6 6 6 6 6 7 6 5 4 4 3 2 2 2 2 1 1 1 1 2 2 2 2 2
11 10 9 8 7 5 3 1 0 2 4 5 5 5 6 7 8 7 7 7 7 8 9 8 7 7 6 6 6 6 6 6 6 6 4 3 3 3 2 3 2 2 3 3 2 2 3 3 3
14 12 11 10 8 7 5 3 2 2 3 4 4 4 5 6 7 7 7 7 7 8 9 8 7 7 7 7 7 7 6 6 6 6 5 4 4 4 3 4 3 4 4 4 3 3 4 4 5
15 14 13 11 10 8 7 6 5 4 3 3 3 3 4 5 6 6 7 7 8 8 8 9 8 9 9 8 8 7 7 7 7 6 6 5 5 4 4 4 4 4 4 4 4 5 5 6 6
17 16 15 14 12 11 9 7 7 5 4 4 4 4 4 4 5 6 7 7 8 9 9 9 9 9 10 9 8 8 8 8 8 8 7 7 6 6 6 5 5 5 4 5 5 5 5 6 7
20 19 18 16 14 13 11 9 9 7 6 5 5 5 5 4 5 6 7 8 8 8 9 9 9 9 9 8 8 8 8 9 9 9 8 8 7 7 6 6 6 6 6 6 6 6 6 7 7
23 21 19 18 16 14 13 11 11 10 8 7 6 6 5 5 5 7 7 7 8 9 9 9 9 9 8 8 8 8 9 9 10 10 10 9 8 8 7 7 7 7 7 7 6 6 7 8 8
25 23 21 20 18 18 16 13 12 11 9 8 8 7 6 5 6 7 7 8 9 9 9 8 10 10 9 8 9 9 9 10 10 10 10 9 9 8 9 9 9 9 9 8 7 7 7 8 8
28 25 23 22 22 20 18 15 14 12 10 10 9 8 8 8 8 8 8 8 9 10 9 9 9 10 10 9 10 10 10 11 11 11 11 10 10 10 10 10 9 9 8 9 8 8 8 9 9
28 27 25 22 20 20 20 17 15 13 12 11 10 9 9 9 9 9 9 10 10 10 10 9 10 11 11 11 11 11 11 12 12 12 12 11 11 11 11 10 9 9 10 10 9 10 10 10 10
30 30 26 24 22 20 20 18 16 15 14 12 11 11 10 10 10 10 10 11 11 11 11 11 11 11 12 12 12 12 12 12 13 14 13 12 11 11 11 10 10 10 11 10 10 11 11 12 12
32 30 29 27 24 21 20 19 17 17 16 14 12 12 11 11 11 11 11 11 12 12 11 12 12 13 12 12 12 13 12 13 14 14 12 12 12 11 11 10 10 10 10 10 11 11 12 12 13
33 32 31 29 27 22 20 19 18 18 16 15 14 13 12 12 12 12 12 12 12 12 13 13 13 14 13 13 13 12 12 13 14 13 12 11 10 10 10 10 10 10 9 10 11 12 12 12 13
34 34 32 30 29 26 21 19 20 18 17 16 15 14 14 13 13 13 13 13 13 13 14 14 14 14 14 15 14 13 13 14 13 12 12 12 11 11 10 10 9 9 10 11 11 13 13 13 13

GEFSSGP_500_meanwind_222.txt.gz
Wind_Speed
21 22 22 22 22 16 14 14 14 13 11 11 11 11 11 12 13 13 12 12 12 11 11 11 10 10 9 9 8 7 7 7 7 7 8 9 9 9 9 9 10 10 10 10 10 9 9 9 9
20 19 23 24 16 12 14 14 14 13 12 12 11 11 11 12 13 12 12 12 11 11 11 10 10 10 10 9 8 7 7 7 7 8 8 9 9 9 9 9 9 9 9 9 9 9 9 9 9
20 21 24 16 11 11 12 13 14 14 13 12 12 11 12 12 12 12 12 12 11 11 11 10 10 9 9 9 8 7 7 7 7 8 9 9 9 9 9 9 9 9 9 9 8 9 9 8 8
21 24 20 13 12 12 13 14 14 14 14 13 13 12 12 13 13 13 13 12 11 11 11 10 10 9 9 8 8 8 7 7 7 8 8 9 9 8 8 9 8 8 8 8 8 8 8 8 8
21 22 14 12 12 12 12 14 14 14 14 14 13 13 13 14 14 14 13 12 12 12 11 11 10 10 9 9 8 8 7 7 7 7 7 7 8 8 8 8 8 8 8 8 7 7 7 7 7
21 17 10 10 10 11 12 13 13 13 14 14 14 14 14 15 14 14 13 13 13 13 12 11 11 10 9 9 9 9 8 7 6 7 6 7 8 8 8 8 8 7 7 7 7 7 7 7 7
16 12 9 9 9 10 11 12 13 13 13 13 14 14 14 14 14 15 14 14 14 13 13 12 12 11 10 9 9 8 8 8 7 7 7 7 7 8 8 8 7 7 7 7 7 7 6 6 6
15 12 8 7 8 9 11 12 13 13 13 14 14 14 14 15 15 15 14 14 14 13 13 13 13 12 10 9 9 9 8 7 7 8 8 7 6 7 7 7 7 7 7 7 7 6 6 6 6
15 11 7 6 7 9 10 11 13 14 13 14 14 14 15 14 15 15 15 14 14 14 13 13 13 12 11 10 10 9 9 8 7 7 6 7 6 6 6 6 6 7 7 7 6 6 6 6 6
11 8 4 5 6 8 9 11 13 13 13 13 14 14 15 14 15 15 15 15 15 14 13 13 13 12 12 11 11 10 9 9 7 6 6 6 5 5 5 5 5 5 5 5 5 5 6 7 7
7 6 4 4 5 6 9 10 12 12 13 13 14 14 15 15 15 15 15 16 15 15 14 13 13 12 12 12 11 10 9 9 9 7 6 5 4 4 4 4 5 4 4 4 5 6 6 6 6
6 5 4 4 4 6 7 8 10 10 11 12 13 13 14 14 15 15 16 16 15 15 14 13 13 12 12 12 11 11 10 9 9 8 7 7 5 5 5 4 5 4 5 5 5 5 5 5 5
4 3 3 4 4 5 5 6 8 9 10 12 12 13 13 14 14 14 14 15 15 15 14 13 13 13 12 12 11 11 11 10 9 8 8 7 6 5 4 3 4 4 4 4 4 4 4 3 3
5 3 2 2 3 4 4 5 8 9 11 11 12 12 13 13 13 13 14 14 15 14 14 13 13 13 12 12 11 10 10 10 9 8 7 7 6 5 4 4 3 3 2 3 3 3 2 2 1
5 3 2 1 2 2 2 3 6 8 10 11 11 12 13 13 12 13 13 14 14 14 13 13 13 13 13 12 11 10 9 9 9 9 8 7 6 5 4 3 2 2 2 1 1 1 1 1 1
3 2 2 1 4 4 3 2 6 8 10 10 11 11 12 12 12 12 13 13 13 13 13 13 13 13 12 11 11 10 9 9 9 8 8 7 7 6 5 3 2 2 1 1 1 1 0 1 1
6 5 3 3 5 6 4 5 5 7 10 10 11 10 11 11 12 12 13 12 13 13 12 13 13 12 12 11 11 11 10 9 9 8 8 7 7 6 6 4 4 3 3 3 2 2 2 2 2
7 5 5 6 7 7 6 5 5 6 8 9 10 10 10 11 12 12 12 12 12 12 12 13 13 12 12 12 11 10 10 9 9 9 8 7 7 7 6 5 4 4 3 3 2 3 3 3 3
9 8 8 7 9 9 7 6 6 7 8 9 9 9 9 10 11 12 11 11 12 12 12 12 13 13 13 12 12 11 10 10 9 9 8 8 7 6 6 5 4 4 3 3 3 4 4 5 5
13 13 10 9 9 9 8 8 7 9 9 10 10 9 8 8 9 10 10 11 11 12 11 11 12 13 13 12 12 12 11 11 10 9 8 8 7 6 6 5 5 4 4 4 5 5 5 5 6
15 14 12 12 11 10 9 10 10 10 9 9 9 8 8 7 8 9 9 10 11 12 12 12 12 13 13 12 12 12 12 11 11 11 9 8 8 8 7 6 5 5 4 5 5 5 6 6 6
17 15 15 14 13 11 10 13 14 13 11 9 8 9 9 8 7 8 9 10 11 11 12 12 12 13 13 13 11 12 12 12 11 11 11 10 9 9 7 6 6 6 6 6 6 6 6 7 6
18 17 17 15 14 13 12 14 14 15 13 11 9 10 9 9 8 8 8 9 10 11 11 12 12 12 12 12 12 12 12 12 12 12 12 11 11 10 8 8 8 7 7 7 6 6 7 7 7
20 18 17 15 15 16 14 14 15 16 15 11 11 11 10 9 9 8 8 9 10 11 11 12 12 12 12 13 13 13 13 13 13 13 12 12 11 11 10 9 9 8 8 8 8 7 7 8 8
23 20 18 16 17 18 15 15 16 16 15 13 12 12 11 10 9 9 9 9 10 10 11 12 12 12 13 13 13 13 13 14 14 14 13 12 12 11 10 10 9 9 9 9 8 8 9 9 9
25 23 20 17 15 14 14 16 17 17 15 14 13 13 12 11 10 10 9 9 10 11 11 12 12 12 13 14 14 14 14 14 14 14 14 13 12 12 11 11 10 10 10 9 9 9 10 10 10
26 25 22 18 16 16 16 16 17 17 16 15 13 13 12 12 10 9 10 10 11 11 12 12 13 13 13 14 14 15 14 14 14 15 14 13 12 11 11 11 11 11 10 10 9 10 11 12 12
27 24 23 23 21 19 17 18 18 17 17 16 15 14 13 13 12 11 11 11 11 11 12 13 14 14 14 14 15 15 15 15 15 15 15 15 14 12 11 11 12 12 12 11 11 11 12 12 13
29 27 26 25 23 20 18 19 18 18 18 17 17 16 15 14 13 12 12 12 11 11 12 14 15 15 15 15 16 16 16 16 15 15 15 15 14 13 12 12 12 12 12 12 11 11 12 12 13
29 29 27 27 27 24 19 18 19 20 21 19 18 16 16 15 14 13 13 13 13 12 13 14 15 16 16 16 17 16 16 16 15 14 14 14 14 13 12 12 13 13 12 12 13 13 13 14 14

GEFSSGP_500_meanwind_228.txt.gz
Wind_Speed
20 21 21 21 22 20 21 22 21 19 18 19 18 17 16 16 16 16 16 15 14 14 13 13 12 12 11 10 9 9 8 8 8 7 8 8 8 8 8 8 9 10 10 9 10 10 10 10 10
19 19 21 22 23 22 22 22 20 19 19 19 17 17 16 15 15 15 15 15 14 14 14 13 13 12 11 10 9 9 8 8 8 8 9 9 8 8 8 8 8 9 9 9 9 10 10 9 10
18 19 21 23 23 23 23 22 21 20 20 19 18 17 16 16 15 15 15 14 14 15 14 13 13 12 11 10 9 9 9 8 8 9 8 8 9 9 8 8 7 8 9 9 9 9 9 9 9
18 19 21 22 22 23 23 23 21 20 19 19 18 17 16 16 16 15 15 15 15 15 15 14 13 12 12 11 10 9 9 8 8 8 7 8 9 8 8 8 7 8 8 8 9 8 8 9 9
16 19 21 20 22 22 22 23 22 20 19 19 18 17 17 16 16 15 15 16 16 15 15 15 14 13 12 11 10 10 9 9 8 8 8 8 9 8 8 8 7 7 8 8 8 8 8 8 9
15 18 19 19 20 21 21 22 21 20 20 19 19 18 17 17 16 16 16 16 16 16 16 15 15 14 12 11 10 10 9 9 9 9 8 8 8 8 8 8 7 7 8 8 8 8 8 8 8
14 17 18 18 18 20 20 21 19 20 20 20 19 19 19 18 18 17 16 16 16 16 16 16 15 15 13 12 12 11 10 10 9 9 8 8 8 8 7 7 7 7 8 8 8 8 8 8 7
14 16 17 18 17 18 20 19 19 20 20 20 20 19 19 19 18 18 17 16 17 17 17 17 16 15 14 13 12 12 11 10 10 8 8 8 8 7 7 7 7 7 8 8 8 8 8 8 7
13 14 15 16 16 18 19 19 19 20 20 20 20 19 18 19 18 18 17 17 17 17 17 17 16 15 14 14 12 12 12 11 10 8 7 7 7 7 7 7 7 6 7 7 7 8 8 8 7
11 12 13 14 15 16 17 17 19 20 20 20 20 19 18 19 18 18 17 17 17 17 17 17 16 16 15 15 13 13 12 12 10 9 8 8 7 7 6 6 6 6 7 7 7 7 7 7 7
9 10 11 13 14 15 16 17 18 20 19 19 18 18 18 18 18 18 18 17 17 17 17 17 16 15 15 14 14 13 12 11 10 9 8 6 7 6 6 6 6 6 6 5 5 6 6 6 6
8 9 10 12 14 14 15 16 17 18 18 18 17 17 18 18 18 17 17 17 17 16 16 16 15 14 14 13 14 13 12 11 10 9 8 7 6 6 5 5 5 5 4 4 4 5 5 5 6
7 7 8 10 13 13 13 14 15 15 16 17 17 16 17 16 16 16 16 16 16 16 15 15 15 14 13 13 13 12 11 10 9 9 8 8 6 6 5 5 4 4 4 4 4 4 3 4 4
6 5 4 7 10 11 11 12 14 14 15 15 15 16 16 16 16 16 16 16 16 16 16 16 16 15 13 12 12 11 10 10 9 8 8 7 6 5 5 5 4 3 3 2 3 3 2 2 2
6 4 2 4 7 9 10 12 13 13 14 14 14 15 16 15 15 16 16 16 15 15 16 15 15 15 14 12 11 11 10 10 9 9 8 7 6 5 4 4 3 2 2 1 2 2 2 1 1
6 4 1 2 4 7 9 11 12 12 14 15 14 14 15 15 15 15 15 15 15 15 15 15 15 15 14 13 11 10 10 9 9 9 8 7 6 6 4 4 3 2 1 1 1 1 1 1 2
6 5 3 0 3 6 8 10 11 11 13 14 14 14 15 15 15 14 14 15 15 15 14 14 15 14 14 13 11 10 9 9 8 8 7 6 6 6 5 4 3 3 1 1 1 0 1 2 2
8 5 4 3 1 5 7 9 10 11 11 13 13 13 13 13 13 14 14 14 14 15 14 13 14 14 14 12 11 9 8 8 7 7 6 5 4 5 4 3 3 3 2 1 0 1 1 2 2
9 7 5 4 2 4 6 8 9 10 11 12 12 12 12 12 12 12 13 13 14 14 14 13 13 13 12 12 11 10 8 7 7 6 6 6 4 4 3 3 2 2 2 1 1 1 2 2 3
11 9 6 5 5 5 6 8 7 8 10 10 11 11 11 11 11 11 11 12 13 13 13 13 12 12 12 12 11 10 9 8 7 7 6 6 5 4 3 2 2 2 2 1 1 2 3 3 3
13 11 9 8 7 7 7 7 8 7 8 8 8 9 9 10 10 10 10 11 11 12 12 12 12 12 12 12 12 11 10 9 8 7 7 6 5 5 4 3 2 2 2 3 3 4 4 4 4
16 13 13 12 10 9 9 9 9 8 7 6 7 7 7 8 9 9 9 9 10 10 11 11 11 11 11 11 12 11 11 11 9 8 7 6 5 5 4 4 3 3 3 4 4 4 5 6 6
17 16 16 16 15 14 12 11 10 10 8 7 7 7 6 8 8 8 8 8 9 10 10 10 10 10 11 11 11 12 12 11 10 9 8 7 6 5 5 4 4 4 4 5 6 6 6 7 7
20 20 19 19 18 17 14 13 12 11 10 10 9 8 7 8 7 7 7 8 8 9 9 9 9 10 10 11 11 11 11 12 11 10 8 8 7 7 6 5 5 5 6 6 6 6 7 8 7
24 23 22 22 21 19 15 14 13 12 11 11 10 9 8 8 7 6 6 7 7 8 9 9 9 9 10 11 11 10 11 12 12 11 10 9 8 7 6 6 6 6 6 6 7 7 8 8 8
26 26 25 24 22 20 18 16 12 11 10 10 9 8 8 8 7 6 7 7 7 8 8 9 9 9 10 11 11 11 11 12 12 11 11 10 9 7 6 6 6 6 6 7 7 8 8 9 9
27 27 25 24 22 21 18 16 14 12 10 10 9 9 9 8 8 7 6 7 7 7 8 9 10 10 10 11 11 12 11 12 11 11 11 10 10 8 7 7 7 7 8 8 9 9 9 10 10
28 27 27 26 24 22 20 18 15 11 10 11 11 9 9 9 9 8 7 7 7 8 8 9 10 10 11 11 12 12 12 12 11 12 12 11 10 10 9 8 9 9 9 9 10 10 10 10 10
29 28 28 27 26 24 22 21 17 13 12 12 12 12 11 10 9 9 8 9 9 8 9 10 10 11 11 11 12 12 12 12 11 11 12 12 11 10 10 9 9 9 9 9 10 11 11 10 10
30 29 28 29 28 26 25 23 20 17 14 14 13 12 12 10 9 9 9 9 10 9 9 10 11 12 11 11 12 12 12 12 12 12 12 12 11 11 11 10 10 10 10 11 11 11 11 12 12

GEFSSGP_500_meanwind_234.txt.gz
Wind_Speed
23 22 21 21 21 20 21 22 22 22 21 20 20 18 17 16 15 15 15 13 12 12 12 12 13 12 11 11 11 10 10 10 10 10 10 10 10 10 10 10 10 10 9 9 9 9 9 9 10
22 21 20 20 21 20 22 23 23 22 21 21 20 18 17 15 15 15 14 13 12 12 12 13 12 12 11 11 11 10 10 10 10 11 10 10 10 10 9 10 11 11 10 10 10 9 9 9 10
19 20 20 20 20 22 23 23 23 22 21 20 20 18 16 15 15 15 15 13 13 13 13 13 13 12 11 11 11 10 10 10 10 10 10 11 11 10 10 10 11 10 10 10 10 10 10 10 9
18 19 19 20 20 22 23 23 23 22 21 20 19 18 16 15 16 15 15 14 13 14 14 13 13 13 12 12 11 11 11 11 10 10 10 11 11 11 11 11 11 10 10 10 10 10 10 10 9
17 18 19 19 21 22 23 23 23 22 21 20 19 17 16 16 15 16 15 14 14 14 14 14 13 14 13 13 12 11 11 11 11 11 11 10 10 10 10 11 11 10 10 10 10 9 9 9 8
16 18 18 20 21 23 23 23 23 22 21 20 19 17 17 16 16 16 16 15 15 15 15 14 14 14 13 13 13 12 11 11 11 11 10 10 10 10 10 10 10 10 10 9 9 9 9 8 8
15 16 19 21 22 23 24 24 23 22 20 20 19 18 18 17 17 16 16 15 15 15 15 15 14 14 14 14 13 13 12 11 11 10 10 10 10 10 10 10 10 10 9 9 8 8 8 7 7
14 15 17 20 22 22 23 23 22 22 21 20 19 18 18 17 17 17 16 15 15 15 15 15 15 15 14 14 13 13 12 11 10 10 10 10 10 10 10 9 9 9 8 8 8 7 7 7 7
13 14 16 19 21 21 22 22 22 22 21 20 19 19 18 17 16 16 16 15 15 15 15 15 14 14 14 13 12 13 12 11 10 10 9 9 9 9 9 9 9 8 8 8 7 7 7 6 6
11 12 15 17 19 20 21 21 21 21 21 20 19 18 18 17 16 15 15 15 15 14 15 14 14 13 13 13 12 11 11 10 10 10 9 9 9 8 8 8 8 7 7 7 6 6 6 6 5
11 12 14 16 18 19 20 20 20 20 20 20 19 18 18 18 17 16 15 15 14 14 14 14 13 13 13 12 12 10 10 10 9 9 9 8 8 7 7 7 7 6 6 6 5 5 4 4 4
10 11 13 15 17 19 19 19 19 20 19 19 18 18 17 17 17 17 17 16 16 14 14 14 14 13 12 12 11 10 10 9 8 8 8 8 7 7 6 6 6 5 4 4 3 3 2 2 2
7 9 12 14 16 18 18 19 18 18 18 18 17 17 16 16 16 17 17 16 16 15 15 14 14 13 12 11 11 11 10 9 8 8 7 7 6 5 5 5 4 4 3 3 2 2 1 1 1
5 7 9 12 14 16 17 18 18 17 17 17 16 16 16 16 16 16 16 16 15 15 15 14 14 12 12 11 11 10 10 9 9 7 6 6 5 4 4 4 3 3 3 3 2 2 2 1 0
4 6 8 10 12 13 14 16 16 16 16 16 16 16 16 16 16 16 16 16 16 15 14 14 14 13 11 11 10 10 9 8 8 7 6 6 5 5 4 2 2 2 2 1 1 1 1 1 1
4 4 6 7 8 10 11 14 14 14 15 15 15 14 15 16 15 15 15 15 15 15 15 14 14 12 11 11 10 10 9 8 7 6 6 6 4 3 2 2 2 2 1 1 1 1 1 2 2
6 4 4 5 6 8 9 11 12 12 13 13 13 13 14 15 15 15 14 14 14 14 14 14 13 12 11 10 10 10 10 9 8 6 6 5 4 3 2 2 2 2 2 2 2 2 2 3 3
7 5 3 2 4 5 7 8 9 10 10 11 11 12 13 13 14 14 14 14 13 13 14 13 13 12 11 10 10 10 10 9 9 7 7 6 5 4 3 2 2 3 3 3 2 2 2 2 3
9 7 5 4 2 2 3 5 6 7 8 9 10 11 12 12 12 12 13 13 12 12 13 13 13 13 12 11 11 11 10 10 9 8 7 7 7 6 4 3 3 3 4 4 3 2 2 3 4
12 9 7 6 4 3 1 1 4 4 5 7 8 9 10 11 11 11 11 12 11 11 12 12 12 12 12 11 11 11 10 10 10 9 8 8 7 7 6 4 4 4 4 4 4 4 4 4 5
14 12 10 9 8 6 4 2 2 2 3 5 7 8 8 9 9 9 10 10 11 11 11 11 11 11 11 11 10 11 11 10 10 9 9 8 7 6 6 5 5 5 4 4 4 4 5 6 6
17 15 13 12 11 8 6 4 2 2 3 4 6 7 7 8 9 8 8 9 10 10 10 11 11 11 11 10 10 10 10 11 10 9 9 8 7 7 6 6 6 6 5 5 5 6 6 7 8
20 18 16 15 14 11 9 7 5 4 3 3 5 5 6 7 7 7 7 8 9 9 9 10 11 11 11 10 10 10 10 10 10 10 9 8 8 8 7 7 7 6 6 6 7 8 8 8 9
22 21 19 18 17 15 12 11 8 6 5 3 4 5 6 6 6 7 7 7 8 8 8 9 10 10 10 10 10 10 10 10 10 10 9 9 9 9 8 8 8 8 8 8 9 9 9 10 11
25 23 22 21 19 17 15 14 11 9 8 5 4 5 6 7 6 6 7 8 7 7 8 8 9 10 10 10 10 10 10 10 11 10 9 9 10 10 9 9 8 8 8 9 9 10 11 12 12
27 25 24 23 22 20 19 17 14 13 11 9 7 6 6 6 6 6 7 7 7 7 8 8 9 9 9 10 10 10 11 11 11 10 10 10 10 10 10 9 9 9 9 10 10 11 12 13 13
30 29 27 26 25 23 21 19 16 15 13 11 10 8 7 7 7 6 7 7 7 8 8 9 8 9 9 10 11 11 11 11 11 11 11 11 11 11 11 10 10 10 10 11 11 12 12 12 12
31 30 29 29 27 26 24 22 18 16 15 14 12 10 9 9 9 8 8 8 8 9 9 9 9 9 9 10 10 11 11 11 12 12 12 11 11 11 11 11 11 11 11 11 12 13 13 13 13
32 32 31 30 30 28 26 23 20 18 17 15 13 12 11 10 10 10 9 9 9 10 10 10 9 10 10 10 11 11 12 12 12 12 12 12 12 12 11 12 11 11 11 12 12 13 13 14 14
33 32 31 31 30 29 27 24 21 20 19 16 15 14 13 12 11 11 10 11 11 11 11 10 11 11 11 11 12 12 12 13 13 14 14 13 12 12 12 12 12 12 12 12 12 13 13 14 14

GEFSSGP_500_meanwind_240.txt.gz
Wind_Speed
19 19 18 18 19 17 17 18 18 18 17 17 17 16 15 14 14 13 13 12 12 11 11 10 11 11 10 10 11 11 12 12 11 11 11 12 12 12 12 11 11 12 12 12 11 11 11 11 10
19 19 18 19 19 16 18 19 19 18 18 18 17 17 16 15 14 14 13 13 12 12 11 11 11 11 10 10 11 11 12 12 12 11 12 12 12 12 12 12 12 12 12 12 10 11 11 11 11
19 19 18 19 17 17 19 19 19 19 18 18 17 17 16 15 15 14 14 13 12 12 11 11 11 11 11 11 12 12 12 13 12 12 12 13 13 13 12 13 13 13 12 11 10 10 11 11 11
19 19 19 19 17 19 19 20 20 20 19 19 17 17 16 16 15 14 14 13 13 12 11 11 11 11 12 12 12 12 13 13 13 13 13 13 13 13 13 13 13 13 12 11 11 11 11 11 10
17 19 19 17 18 19 19 19 20 20 19 19 18 18 17 16 16 15 14 13 13 13 12 12 12 12 12 13 13 13 13 13 13 13 13 13 14 13 13 14 13 13 12 11 11 11 11 11 10
18 19 17 17 18 19 20 20 20 21 20 19 19 18 17 17 16 16 15 14 14 13 12 12 12 12 13 13 13 13 12 12 12 13 12 12 13 13 13 13 13 12 12 11 10 10 10 9 9
17 17 16 17 18 19 20 20 21 21 20 19 18 17 17 17 16 16 15 15 14 13 13 12 13 13 13 13 13 13 12 12 12 12 12 12 12 12 12 12 12 11 11 10 10 9 9 9 9
16 16 16 17 18 18 19 20 21 21 20 19 19 18 17 17 16 16 15 15 14 13 13 12 13 13 13 12 12 12 12 11 11 11 11 11 11 11 11 11 11 10 10 10 9 8 8 8 8
16 15 15 17 18 18 19 20 21 21 20 19 19 18 17 17 16 15 15 15 14 13 12 12 12 12 11 11 11 12 12 11 11 11 11 11 11 11 10 10 10 9 9 9 9 8 8 7 7
15 14 15 16 17 18 19 20 20 20 20 20 19 18 17 17 16 15 14 14 13 13 12 12 12 11 11 12 11 11 11 11 10 10 10 9 10 10 9 9 8 8 8 8 8 7 7 6 5
12 13 14 15 16 18 19 20 20 20 20 19 18 18 17 17 16 16 15 14 13 13 13 12 12 11 12 12 12 11 11 11 10 10 10 9 8 8 7 7 7 7 6 6 6 6 5 5 4
11 12 13 14 15 17 18 19 19 19 19 18 18 17 17 17 16 16 16 15 14 13 13 12 12 12 11 11 11 11 10 10 9 10 9 8 7 7 6 6 6 5 4 4 4 3 3 3 3
9 10 11 12 14 15 17 18 18 18 18 18 17 16 16 16 16 16 16 15 15 14 14 13 12 12 11 10 10 10 9 9 9 9 8 8 7 6 5 4 4 4 3 3 2 2 2 2 2
7 8 9 11 12 14 15 16 16 16 16 16 16 16 16 16 16 16 16 16 15 14 13 13 13 12 11 10 10 9 9 8 8 8 7 7 7 5 4 3 3 3 3 3 2 1 2 1 1
7 7 7 9 10 12 13 15 15 15 15 15 15 15 15 15 15 15 15 15 16 15 14 13 13 12 11 10 10 9 8 7 7 6 6 6 6 5 4 3 3 3 3 2 2 1 1 1 1
6 6 5 6 7 9 11 12 13 13 13 14 14 14 14 14 14 14 14 14 14 14 13 13 12 11 10 9 8 8 8 7 7 6 5 5 5 5 4 3 3 2 3 3 3 2 1 0 0
5 5 3 4 5 7 9 9 10 12 12 13 13 13 13 13 13 13 13 13 13 13 12 12 11 11 10 9 8 7 7 7 7 6 6 5 5 4 4 3 3 2 2 2 3 2 3 2 1
6 5 3 2 3 5 7 7 8 10 11 12 12 12 12 12 12 12 12 12 12 12 12 11 11 11 10 9 9 8 7 7 6 6 6 5 5 4 4 2 2 2 1 2 2 3 3 3 2
9 8 5 3 2 3 4 5 6 7 9 10 11 11 11 10 10 11 11 11 12 12 12 11 11 11 9 9 8 7 7 7 6 5 5 4 4 5 4 4 3 2 2 2 2 3 3 3 4
11 9 7 6 3 2 2 2 3 4 6 7 9 10 10 10 9 10 10 10 10 10 10 10 9 10 9 8 8 8 7 7 6 5 5 4 4 4 4 4 3 2 3 3 3 3 4 5 5
13 11 10 8 6 3 2 1 1 2 3 5 7 8 9 10 9 9 9 9 9 9 9 9 9 8 9 8 8 9 8 7 6 6 6 6 5 5 5 4 3 3 4 4 4 4 5 5 6
15 14 12 10 8 6 4 3 4 2 2 3 5 6 8 8 9 8 8 8 8 8 8 9 9 8 8 8 8 8 8 8 7 7 6 6 6 5 4 5 4 4 4 4 5 5 5 6 6
18 16 14 13 11 9 7 5 5 4 3 3 4 5 6 7 8 7 7 7 8 8 8 9 9 9 8 9 8 8 8 8 8 7 7 7 6 6 6 6 5 5 5 5 5 6 6 7 7
19 17 15 14 13 13 10 8 6 7 5 4 5 5 6 6 7 7 7 7 7 7 8 8 8 8 8 8 8 8 9 9 8 8 8 8 8 7 7 6 6 5 5 6 7 7 7 8 9
21 18 16 16 16 15 13 11 9 9 7 6 6 6 6 6 7 7 7 7 7 6 7 7 7 7 7 8 8 9 9 8 8 8 8 8 8 8 8 7 7 7 7 7 8 8 9 9 10
22 20 18 16 16 15 16 14 11 10 9 8 7 7 7 7 7 8 8 7 7 6 7 7 7 7 8 8 8 9 9 9 9 9 9 9 9 9 9 9 8 8 9 9 9 9 9 10 11
24 23 21 19 17 15 16 16 13 11 10 9 9 9 8 8 8 9 9 8 7 7 7 8 8 8 8 8 8 9 10 10 10 10 10 10 10 10 10 10 9 9 9 9 9 10 10 10 11
26 25 24 23 21 18 17 17 15 13 12 11 11 11 10 9 9 9 9 9 8 8 8 9 9 9 9 9 9 9 10 11 11 10 10 10 11 11 10 10 10 10 9 10 10 10 10 11 12
28 27 26 25 24 20 18 18 17 16 14 13 12 12 12 11 11 10 10 10 10 9 9 10 10 10 10 10 10 10 11 11 11 11 11 11 11 11 10 10 10 10 10 10 11 10 11 12 13
30 29 27 27 26 24 20 18 19 18 16 16 15 14 14 13 12 12 12 11 11 11 11 10 10 10 11 11 11 12 11 11 11 12 11 11 11 11 11 11 11 11 11 12 12 11 11 12 14

GEFSSGP_500_meanwind_246.txt.gz
Wind_Speed
20 19 20 20 21 15 12 13 12 12 11 11 11 10 10 9 9 9 10 10 9 9 9 9 9 9 9 8 8 8 8 7 7 8 8 8 8 9 9 9 9 8 8 9 9 9 9 9 9
20 19 21 23 17 13 13 13 12 12 12 11 11 11 11 11 11 10 10 10 9 9 9 9 9 9 9 9 9 8 9 8 8 8 9 9 9 10 10 10 9 9 8 9 9 9 8 8 9
20 21 24 19 10 12 13 13 13 12 12 12 12 11 12 12 12 11 11 11 10 10 9 9 9 9 9 9 8 8 8 9 8 9 9 9 10 10 10 10 10 9 9 9 9 9 9 9 10
21 26 23 14 11 12 13 13 13 13 13 14 14 13 13 13 12 12 12 12 11 11 10 10 10 10 9 9 9 9 9 10 9 9 10 10 10 11 10 10 10 10 10 10 9 9 9 10 10
25 24 17 12 11 12 13 13 13 13 13 14 14 14 14 14 13 13 13 13 13 13 12 11 11 10 10 10 9 9 10 10 10 10 11 11 11 11 11 10 10 10 10 9 9 9 9 9 8
23 19 13 11 11 12 13 13 13 13 14 14 15 14 14 14 14 14 14 14 14 14 13 12 11 10 10 10 9 9 9 10 10 10 10 10 11 11 10 10 10 10 10 9 9 8 8 8 8
19 14 11 11 11 12 12 12 13 14 14 15 15 14 14 14 14 14 14 14 14 14 13 11 10 10 10 10 10 10 10 10 10 9 9 10 11 11 10 10 10 10 10 9 8 8 8 8 8
16 14 12 10 10 11 12 13 14 14 14 15 16 15 14 15 15 14 14 14 14 13 13 11 11 11 10 10 10 10 10 10 9 9 8 9 10 10 10 9 9 9 9 8 8 7 7 7 7
14 13 10 8 9 11 12 13 14 15 14 14 15 15 15 15 15 15 14 14 14 13 13 12 11 11 11 11 11 11 10 10 9 9 9 9 9 9 9 9 8 8 7 7 6 6 6 6 5
10 9 8 10 10 11 12 14 15 16 15 15 15 15 15 16 16 15 15 14 14 13 12 12 12 12 12 12 11 11 10 10 10 9 9 8 8 8 8 8 8 7 6 6 5 5 5 5 4
8 7 9 11 11 12 13 14 14 15 16 15 16 16 16 16 16 16 16 15 14 13 13 12 12 12 12 12 11 11 10 10 10 10 9 8 7 7 7 6 5 5 4 4 4 4 3 3 2
7 7 9 11 11 12 13 13 13 14 15 15 16 16 17 17 18 17 16 15 14 13 12 12 12 12 12 11 11 10 10 10 10 10 8 8 7 6 5 5 4 4 4 4 4 3 2 2 1
6 7 9 10 11 12 13 13 13 14 15 15 15 16 17 17 17 17 17 16 15 14 13 13 12 11 11 11 10 9 9 9 9 10 9 8 7 5 4 4 4 4 4 4 3 3 3 2 1
5 6 8 9 10 12 12 12 12 14 15 15 15 16 17 17 16 17 16 15 15 14 13 13 12 11 11 10 10 9 7 8 8 8 8 7 7 6 5 4 3 3 3 3 3 3 2 2 2
5 5 5 7 8 10 11 11 12 13 14 14 15 16 16 16 16 16 16 15 15 14 13 13 12 10 10 9 9 8 7 7 7 7 7 7 6 6 5 4 3 2 2 2 2 2 2 2 2
4 3 3 5 6 7 9 11 11 12 14 15 15 15 15 15 16 16 15 15 14 14 13 12 11 10 10 9 9 8 7 6 6 6 6 6 5 4 4 3 3 3 2 2 2 2 3 3 3
2 1 1 3 4 6 8 9 10 12 13 14 15 15 14 14 15 15 15 14 14 14 13 12 11 11 10 9 9 7 7 6 6 6 6 5 5 4 4 4 3 3 3 3 3 3 3 3 4
5 3 1 1 2 4 5 7 8 11 12 13 14 14 14 14 15 14 14 14 13 13 13 12 11 11 10 10 8 8 7 6 6 7 6 6 5 4 4 4 4 4 3 3 3 4 4 4 5
6 4 3 2 1 1 4 6 7 8 10 12 13 13 13 13 14 14 14 14 13 13 13 12 12 11 10 10 8 8 7 6 6 6 7 6 5 5 5 5 4 4 4 4 4 4 5 5 6
9 7 5 4 3 3 3 5 6 7 8 10 11 11 11 12 13 14 14 14 13 13 12 12 12 12 11 10 10 8 7 6 6 6 6 7 7 6 6 6 5 5 5 5 5 5 6 6 7
11 10 8 6 4 3 4 4 6 7 8 8 9 9 9 11 12 13 13 13 13 13 12 12 12 12 11 11 10 10 9 7 7 7 8 8 7 7 7 7 7 6 6 6 5 6 6 6 7
13 12 9 7 5 5 4 5 7 8 7 8 9 8 8 9 10 11 12 12 12 12 12 12 12 12 12 11 11 10 10 9 8 8 8 8 8 8 9 8 8 8 7 7 7 7 7 8 9
14 12 11 9 7 7 7 7 8 9 8 8 8 8 8 8 9 10 11 11 11 11 11 11 11 12 12 12 12 12 11 10 9 9 9 9 9 9 9 9 9 9 9 9 9 9 9 9 9
14 12 10 10 10 11 10 8 9 11 10 8 8 8 8 8 8 9 9 10 10 10 10 11 11 11 12 12 12 12 12 11 10 9 9 9 9 10 10 10 10 10 10 10 10 10 10 10 10
16 14 13 13 14 12 10 10 12 12 10 9 8 8 8 9 8 8 9 9 9 9 10 10 11 12 12 12 12 12 12 11 11 10 10 10 10 10 11 11 11 11 11 11 11 10 10 10 11
18 17 15 13 13 12 11 13 14 13 11 11 10 10 9 9 9 9 9 9 9 9 9 10 11 12 12 12 12 12 12 11 11 11 11 11 11 11 12 11 11 11 11 11 11 11 11 12 12
19 18 16 15 13 12 12 15 15 14 13 14 12 12 12 10 10 10 9 9 9 9 10 11 11 12 13 13 13 13 12 12 12 12 12 12 12 12 12 12 12 12 12 12 12 12 12 12 13
22 20 17 18 17 15 13 14 15 17 17 16 13 13 13 12 11 11 10 10 10 10 10 11 12 12 13 13 13 13 12 12 13 13 12 12 12 12 12 12 13 13 13 13 13 13 13 13 14
23 23 21 20 19 17 15 15 15 18 18 17 16 14 14 14 13 12 11 11 11 11 11 11 12 13 13 13 13 13 13 13 13 13 13 13 13 13 13 13 13 13 14 14 14 14 14 14 15
25 24 23 23 22 19 18 14 15 18 18 17 16 15 14 15 14 13 13 12 12 11 12 12 13 13 14 14 13 13 14 14 13 13 14 14 14 14 14 14 14 14 14 15 15 15 15 16 15

GEFSSGP_500_meanwind_252.txt.gz
Wind_Speed
19 18 18 19 21 20 20 21 19 17 15 15 15 14 13 12 12 12 12 12 12 12 12 11 11 10 10 10 9 9 8 8 8 8 7 7 7 7 8 8 8 8 9 9 10 10 10 10 10
19 18 18 20 22 21 21 21 19 17 17 17 15 14 13 12 12 12 12 12 12 12 12 11 11 11 10 9 9 9 8 8 8 8 7 7 7 8 8 8 8 9 9 9 9 9 9 9 9
19 19 19 22 22 21 21 21 20 18 18 18 16 15 14 13 13 13 13 13 13 12 11 11 11 11 10 10 9 9 9 9 8 8 8 7 8 8 8 8 8 8 8 8 9 9 8 9 9
18 19 21 22 22 22 21 21 20 18 18 18 17 15 15 15 14 14 13 13 13 12 12 12 11 11 11 10 9 9 9 9 9 8 8 9 8 8 8 8 8 8 8 8 8 8 8 8 9
18 19 21 21 23 23 22 21 20 19 17 18 17 15 15 16 15 14 14 14 13 13 13 13 12 12 11 11 10 10 10 10 10 9 9 10 9 8 8 8 8 8 8 8 8 8 8 8 9
18 19 19 20 22 22 21 21 20 18 17 17 17 17 17 17 17 16 15 15 14 14 13 13 13 13 12 11 11 11 11 11 11 10 10 10 9 9 8 8 8 8 8 8 8 8 8 9 9
18 18 19 20 21 21 21 20 19 17 17 17 17 17 18 18 17 17 16 15 14 14 14 14 13 13 13 12 12 12 12 11 11 11 11 10 9 9 9 8 8 8 7 7 7 8 8 8 8
18 18 18 19 20 20 20 20 18 18 17 17 17 17 18 18 18 17 17 16 14 14 15 14 14 14 13 13 12 12 12 12 11 11 10 10 9 9 8 8 8 8 7 7 7 7 7 7 7
17 17 17 18 19 19 19 18 18 18 18 17 18 18 18 18 18 17 17 17 16 15 15 15 14 14 13 13 13 12 12 11 11 10 10 10 9 9 8 8 8 7 6 6 6 6 6 6 5
15 16 17 17 19 19 18 18 19 19 19 19 19 18 18 18 18 18 17 17 16 15 14 15 15 14 13 13 13 13 12 11 11 11 10 9 9 8 8 7 7 6 6 6 6 6 5 4 4
13 14 16 17 17 18 18 19 20 20 19 20 19 18 18 18 18 18 17 17 16 16 15 15 14 14 13 13 13 13 12 12 11 10 10 9 9 8 7 7 6 6 6 6 5 5 4 4 4
11 14 15 16 16 18 18 20 20 19 19 19 19 18 18 18 19 18 18 18 17 16 15 15 14 14 13 13 13 12 12 11 11 11 10 9 8 7 7 6 6 6 6 6 5 4 4 3 3
10 13 14 15 16 18 19 20 20 19 19 19 19 18 18 19 19 19 18 18 17 16 16 15 14 14 13 12 11 11 11 11 11 10 9 9 8 7 6 5 5 5 4 4 4 3 3 2 2
9 9 11 13 15 16 18 19 19 18 18 18 19 19 19 19 19 19 18 18 17 17 15 15 14 13 12 12 11 10 9 10 9 9 8 7 7 6 6 5 5 4 3 4 4 3 3 2 1
8 8 11 12 13 15 16 17 18 18 18 18 19 19 19 19 19 18 17 18 17 16 15 14 14 13 12 11 11 9 8 8 8 7 7 7 6 6 6 5 5 4 4 4 3 3 3 2 2
8 8 10 10 11 14 14 15 17 17 17 17 18 18 18 18 18 17 17 17 17 16 15 15 14 14 13 11 11 10 9 8 7 6 6 6 5 5 5 4 4 4 4 3 3 2 2 2 3
7 7 8 9 10 11 12 14 15 16 17 16 17 17 17 17 17 17 16 16 16 15 15 14 14 13 13 12 11 10 9 8 8 7 6 5 5 4 4 4 4 4 3 3 3 3 2 3 3
8 5 6 7 8 9 9 11 13 14 15 15 16 16 16 16 16 16 16 15 16 15 14 14 14 13 13 12 10 10 9 8 7 7 7 6 4 4 4 3 3 3 3 3 3 3 3 3 4
9 7 5 4 5 6 7 8 10 12 13 14 14 14 14 15 15 15 16 15 14 14 14 13 13 13 12 12 11 10 8 7 7 6 6 6 5 5 4 3 3 3 3 3 4 4 4 4 5
11 8 5 3 1 3 3 5 7 10 11 12 12 12 12 13 14 15 15 14 14 14 14 13 13 13 12 11 10 9 8 8 7 6 6 6 6 6 5 5 4 4 4 4 4 4 4 5 6
11 9 6 3 2 2 2 3 5 7 9 10 10 11 10 11 12 12 13 13 13 12 12 12 12 12 12 11 10 10 9 8 7 7 7 6 6 6 6 6 5 5 5 5 5 5 5 6 6
12 12 9 6 4 4 3 3 4 5 7 8 9 9 9 11 11 11 11 11 12 11 11 11 11 11 11 11 11 10 10 9 8 8 8 7 7 7 7 7 6 6 5 6 5 5 5 6 7
12 12 11 9 8 7 6 5 4 4 5 6 7 9 8 9 10 10 9 10 10 10 10 11 11 11 11 11 11 11 9 9 9 7 7 7 7 7 7 7 7 7 7 7 7 6 7 7 8
14 14 13 13 11 10 7 7 5 4 4 4 5 6 7 8 8 9 8 8 9 10 10 10 11 11 11 11 11 10 10 9 9 8 8 7 7 8 8 8 8 7 8 8 8 9 8 8 8
18 17 16 16 15 12 10 10 7 5 4 4 4 4 4 5 7 8 8 8 8 9 9 10 10 10 11 10 10 9 9 9 9 8 8 8 8 9 8 8 8 8 8 9 9 9 9 9 9
19 19 18 17 16 14 13 11 9 8 6 5 5 6 5 5 6 6 6 6 8 8 8 9 9 10 10 10 10 9 9 9 9 9 8 8 8 9 9 9 9 9 9 10 10 10 10 10 10
20 20 19 18 17 16 15 14 12 10 8 7 8 8 8 6 6 6 6 7 8 8 7 8 8 9 9 9 9 9 9 9 9 8 8 8 9 9 9 10 10 10 11 11 11 11 11 11 11
22 21 20 20 19 19 18 16 14 10 9 9 8 8 8 7 7 7 7 7 7 8 8 8 8 8 9 9 9 8 8 8 8 8 8 8 9 9 9 10 10 11 12 12 12 12 12 11 11
24 23 22 22 22 21 20 17 14 12 12 11 9 9 10 10 9 8 7 7 7 8 9 8 8 8 9 9 8 8 8 8 8 8 8 9 9 10 10 11 11 12 12 12 13 13 12 12 12
26 25 24 23 22 22 22 19 18 16 14 13 12 12 12 12 11 11 10 8 8 9 9 8 8 8 8 8 8 8 8 9 9 9 9 10 10 11 11 12 12 12 12 13 13 13 13 13 13

GEFSSGP_500_meanwind_258.txt.gz
Wind_Speed
21 21 20 19 19 18 18 19 20 19 18 17 16 14 13 12 11 11 11 11 11 10 10 10 10 10 10 10 10 10 9 9 9 9 9 9 9 9 10 9 9 9 9 9 10 9 8 8 8
20 20 20 19 19 18 20 21 20 20 18 18 16 14 13 12 11 11 11 11 10 9 9 10 10 10 10 10 10 10 9 9 9 9 9 9 9 9 9 9 9 9 9 9 10 10 9 9 9
20 20 19 19 19 20 21 22 22 20 19 18 17 14 13 13 12 11 11 10 10 10 10 10 10 10 10 10 10 9 9 9 9 9 9 10 10 9 9 9 9 9 8 8 9 9 9 8 8
20 20 19 20 20 21 22 22 22 20 19 19 18 16 14 13 12 12 11 11 10 11 11 11 11 11 11 11 10 10 9 9 9 9 9 9 9 8 8 8 8 8 7 8 8 8 7 7 8
18 19 20 20 21 21 22 22 21 21 20 19 18 17 15 14 13 13 12 11 11 11 11 12 11 11 11 11 10 10 10 9 9 9 9 8 8 8 8 8 8 6 7 8 8 8 6 6 6
18 19 20 21 22 22 22 22 22 21 20 19 18 18 16 15 14 13 13 13 12 12 12 13 13 12 12 11 10 10 10 10 10 9 9 9 9 9 8 8 7 7 7 8 7 7 6 5 6
18 18 19 21 22 22 22 22 21 20 19 18 18 18 17 16 15 14 14 14 14 14 13 13 13 12 12 11 11 10 10 10 10 11 10 10 9 9 8 8 8 8 8 7 6 6 5 5 5
17 18 20 22 23 22 22 22 21 20 18 18 18 18 17 16 15 16 16 15 15 15 14 14 13 13 12 11 11 11 10 10 10 10 10 10 10 9 8 8 8 8 7 7 6 5 4 4 4
17 19 20 22 23 22 23 23 21 20 19 18 18 18 17 16 16 16 16 15 15 14 14 14 14 13 13 12 12 12 11 11 10 10 9 9 9 9 9 9 8 8 6 6 5 5 5 4 4
17 18 19 21 22 22 22 22 21 20 19 19 19 18 18 17 16 16 16 16 15 14 14 13 13 13 12 12 12 12 11 11 10 9 9 8 8 8 8 8 8 7 6 5 5 5 4 3 3
15 16 18 19 21 22 22 21 21 21 20 19 19 18 18 17 17 17 17 16 16 15 14 13 12 13 13 13 12 12 11 11 11 10 9 8 8 8 8 8 7 6 6 5 4 4 3 3 2
14 15 17 18 20 21 21 21 20 20 20 19 20 19 19 19 18 18 17 17 17 16 14 13 13 13 13 12 11 11 11 11 11 10 9 9 8 7 7 7 6 6 5 5 4 3 3 2 1
13 13 15 17 19 20 20 21 20 20 20 20 20 19 19 19 19 19 18 18 17 16 15 14 13 13 13 12 12 11 11 11 10 10 9 8 8 7 6 6 6 5 5 4 4 4 3 3 2
10 11 12 15 17 18 19 20 20 19 19 20 20 19 19 19 19 18 18 18 17 17 16 16 14 13 12 12 11 11 11 10 10 9 8 7 7 7 7 6 5 5 4 4 3 3 3 2 2
9 10 11 14 17 18 18 18 19 18 18 18 19 19 18 18 18 18 18 17 16 16 15 15 14 13 12 11 11 11 10 9 9 8 7 6 6 6 6 5 5 4 4 3 3 2 2 2 2
9 10 10 13 15 16 17 17 17 17 17 17 18 18 18 17 17 17 17 17 16 16 15 14 13 12 11 11 10 9 9 8 8 7 6 6 6 5 4 4 3 3 3 3 2 2 2 2 3
7 8 9 10 12 13 15 15 15 15 15 15 16 16 17 16 16 16 16 16 15 15 14 14 13 13 11 11 10 9 8 8 7 6 5 5 5 4 3 3 3 2 2 2 2 2 3 3 3
6 6 7 8 9 10 12 13 13 12 13 14 14 14 15 15 15 15 14 14 14 14 14 13 13 13 12 11 10 9 8 7 7 6 5 5 5 4 3 3 2 2 3 3 3 3 3 4 4
6 6 5 5 6 6 8 9 9 10 11 12 12 13 13 14 13 13 13 13 13 13 13 13 13 12 12 11 11 10 9 8 7 7 6 5 5 5 4 4 4 3 4 4 3 3 4 4 4
7 6 5 3 3 3 4 5 7 7 8 10 10 11 11 11 11 11 12 11 11 11 11 12 12 11 11 11 11 10 9 8 8 7 7 6 5 4 4 5 5 5 4 5 4 4 4 5 5
10 7 5 4 3 2 2 2 3 5 6 7 8 9 9 9 10 10 10 10 10 10 10 11 11 11 10 10 10 10 9 8 8 8 7 7 6 4 4 6 6 6 6 6 6 5 5 6 6
12 10 8 6 5 4 3 1 1 2 4 6 7 8 8 8 8 9 9 9 9 8 9 9 10 10 10 10 9 9 9 8 8 8 7 7 6 6 5 6 7 7 7 7 7 7 6 7 7
14 14 12 10 8 6 5 3 2 1 3 4 5 6 7 7 7 7 7 7 7 7 7 8 8 9 9 9 9 8 8 8 8 8 8 7 6 6 6 7 7 8 8 8 8 8 8 8 8
17 17 15 14 12 10 7 5 4 3 2 3 3 5 6 5 5 5 5 5 6 6 7 7 7 8 8 8 8 8 7 8 8 8 8 7 7 7 6 7 8 8 8 8 8 9 9 9 9
20 19 18 16 14 12 9 8 6 5 4 3 3 4 5 6 6 6 5 5 6 6 7 6 7 8 8 8 8 8 7 8 8 8 8 8 8 7 7 8 8 8 8 9 9 10 10 10 10
22 21 20 19 16 14 13 11 9 8 6 4 4 3 3 4 5 6 6 6 6 7 7 6 7 7 7 7 8 7 7 8 8 8 8 8 8 7 8 9 9 9 9 9 10 10 10 11 11
23 22 21 21 20 18 17 15 13 10 9 7 6 5 4 3 3 5 6 7 6 6 6 7 7 7 7 7 8 7 7 8 8 9 8 8 7 8 9 9 10 10 10 10 10 10 11 11 11
25 24 24 24 23 21 19 17 14 12 11 10 8 7 7 6 4 5 5 6 5 5 5 6 6 6 6 7 7 7 7 8 9 9 9 9 8 9 10 10 10 10 10 10 11 11 11 11 12
27 27 27 26 26 24 22 18 15 13 12 11 10 10 9 7 7 7 6 6 6 6 6 6 7 6 6 7 7 8 8 9 9 9 9 9 10 10 10 10 11 11 10 10 11 11 11 12 12
29 28 27 27 26 25 23 20 16 14 14 13 13 12 11 10 9 9 8 8 7 7 6 7 8 7 7 7 8 8 9 9 10 10 10 10 10 10 11 11 11 11 11 11 11 12 12 13 13

GEFSSGP_500_meanwind_264.txt.gz
Wind_Speed
18 18 17 17 18 16 15 15 16 16 15 14 13 12 11 11 11 11 11 11 11 11 10 9 10 10 9 9 10 10 11 11 11 11 11 11 10 10 10 10 10 10 10 11 11 10 9 8 8
18 17 17 17 17 14 15 16 16 16 16 15 14 12 11 11 11 11 12 11 11 11 10 10 10 10 10 10 10 10 10 11 11 11 12 12 12 11 11 10 10 11 11 11 10 10 9 8 7
18 18 17 18 16 15 16 17 18 18 17 16 15 13 12 12 12 12 12 11 11 10 10 9 10 10 10 11 11 11 11 12 12 12 12 12 11 10 10 10 9 11 11 11 11 10 9 7 7
19 19 18 17 16 17 18 18 19 18 18 17 16 15 14 13 13 13 12 12 11 10 9 8 9 10 10 11 11 11 12 12 11 12 12 11 10 10 10 10 10 10 11 11 10 9 8 7 7
19 19 18 16 16 18 18 19 19 19 19 18 17 16 15 15 13 13 13 12 12 11 10 10 10 10 11 11 12 11 11 11 11 11 11 11 10 10 10 10 9 10 10 10 9 8 7 7 6
18 18 16 16 17 18 18 19 20 20 19 19 17 16 16 15 14 13 13 12 12 12 11 11 11 10 10 10 11 10 10 10 10 10 10 10 10 10 9 9 9 9 10 9 8 8 7 6 6
18 17 16 17 17 18 18 19 19 19 19 19 17 16 16 15 14 13 13 13 13 12 11 11 11 10 10 10 10 10 10 10 10 10 10 10 10 10 9 9 9 9 9 8 8 7 6 5 5
17 17 16 17 17 18 19 19 19 20 19 19 18 17 16 16 15 14 14 13 13 12 11 10 10 10 10 10 9 10 10 11 10 10 10 10 9 9 9 8 9 9 8 7 7 7 6 5 5
17 16 16 17 18 18 19 20 20 20 19 19 18 18 17 16 16 15 14 13 12 12 11 10 10 10 10 10 10 10 10 10 11 11 10 10 9 8 8 8 8 7 7 7 7 6 5 4 4
16 15 16 17 18 19 19 20 20 20 19 19 18 18 17 17 16 15 14 13 13 12 11 11 11 11 10 10 10 10 10 11 11 10 10 9 8 8 7 8 7 7 7 7 6 5 4 4 4
15 15 16 17 18 19 20 20 20 20 20 19 18 18 17 16 16 16 14 13 13 12 11 11 11 11 10 10 11 10 11 11 10 10 9 8 8 8 7 7 6 6 6 6 6 5 5 4 4
14 14 15 17 18 19 19 19 20 20 20 19 19 18 17 16 16 16 14 13 13 12 12 12 11 11 11 11 11 10 10 10 10 9 8 8 7 7 7 7 7 6 6 5 4 5 5 4 3
12 13 14 16 17 18 18 19 19 19 19 19 18 18 18 17 16 15 14 14 13 13 12 12 12 11 11 11 10 10 10 9 9 8 8 8 7 7 7 7 6 6 5 4 3 4 4 3 2
10 12 13 15 16 17 17 17 18 18 18 18 17 17 17 17 16 15 14 14 14 13 13 12 11 11 11 11 11 10 9 9 8 8 8 8 7 6 5 6 5 5 5 4 3 3 3 2 1
10 11 12 13 15 15 16 16 16 17 17 17 17 16 16 16 16 16 15 14 14 14 13 12 11 11 11 11 11 10 9 8 7 7 7 7 6 6 5 5 4 4 3 3 3 3 2 1 1
9 10 10 11 13 13 15 15 14 15 15 16 15 15 15 15 15 15 14 14 13 13 13 12 11 11 10 10 10 10 9 8 8 7 7 7 7 6 5 4 3 3 2 2 2 2 2 1 1
6 7 8 9 11 12 13 13 13 13 14 14 14 14 13 13 13 13 13 13 12 12 12 11 11 11 10 9 9 9 8 8 7 7 7 7 7 6 6 4 3 3 2 2 2 2 2 2 2
5 5 6 7 8 9 11 11 11 11 12 12 12 12 12 12 12 12 12 12 11 12 11 11 11 10 10 9 9 8 8 7 7 6 6 6 6 6 6 5 4 3 3 3 2 2 2 2 3
6 5 4 4 5 6 7 8 8 9 9 10 10 10 10 10 10 11 11 11 10 11 10 10 10 10 9 9 8 8 7 7 7 6 6 6 5 5 6 5 4 4 4 4 3 3 3 3 4
6 5 3 2 3 4 5 5 5 6 7 8 8 9 8 8 9 10 10 9 9 9 9 9 9 9 9 8 8 8 7 7 6 6 5 5 5 5 5 4 4 4 4 4 4 4 4 4 5
7 6 5 3 0 1 2 3 3 4 5 6 7 7 7 7 7 8 8 8 8 8 7 7 7 8 7 7 7 7 7 7 6 6 5 5 5 5 5 5 4 5 5 5 5 5 5 6 5
9 8 6 5 2 1 0 1 2 2 3 4 5 5 5 6 6 7 7 7 6 6 6 6 6 6 6 6 6 6 6 6 6 6 5 5 5 5 5 6 6 6 6 6 6 6 7 7 6
12 10 8 7 5 3 3 2 2 2 2 3 3 4 5 5 6 6 7 7 6 6 5 6 5 5 5 5 5 5 6 6 6 6 6 5 5 6 6 6 7 7 7 7 7 7 7 7 7
13 11 9 7 6 7 6 4 3 3 3 2 3 4 4 5 6 6 6 6 6 6 5 5 5 4 4 4 5 5 6 6 6 6 6 6 6 6 6 6 6 7 7 7 7 7 7 7 7
14 12 9 9 9 9 8 6 6 4 3 3 3 3 4 4 5 6 6 6 6 5 5 5 5 4 4 4 4 5 6 6 6 6 6 7 7 7 7 7 6 7 7 7 7 8 8 8 8
16 14 13 11 10 9 9 9 8 5 5 4 4 4 4 4 4 5 6 5 5 5 5 5 4 4 4 4 4 5 6 6 6 7 6 7 8 8 8 7 7 7 7 7 7 8 8 8 9
18 17 15 14 12 10 11 10 9 8 8 7 6 6 6 6 5 6 6 5 5 4 5 5 5 4 4 5 5 5 6 6 7 7 7 7 8 7 7 7 7 8 7 7 8 9 9 9 9
21 19 18 16 15 13 12 11 10 10 10 9 9 8 8 7 7 7 7 6 6 6 6 6 6 5 5 5 6 7 6 6 7 7 7 8 7 7 7 7 8 8 8 9 9 9 10 10 10
22 21 20 19 19 15 14 13 13 11 11 11 11 10 10 9 9 8 8 8 7 7 7 7 7 6 6 6 6 8 8 8 8 7 7 8 7 7 7 8 8 9 9 9 10 10 11 11 11
25 24 23 22 21 19 17 16 16 13 12 12 12 11 11 11 10 9 9 9 9 9 10 9 8 8 8 7 8 8 8 9 9 9 8 8 8 8 8 8 9 9 10 10 11 12 12 12 12

GEFSSGP_500_meanwind_270.txt.gz
Wind_Speed
17 17 16 17 18 15 11 10 10 9 8 7 6 6 6 5 6 6 7 8 8 8 7 7 7 7 7 7 7 7 7 7 7 7 6 6 6 6 6 6 6 7 8 8 7 7 7 6 6
16 15 17 19 16 11 10 10 9 10 9 8 7 6 5 5 6 7 7 8 8 7 7 7 6 6 7 7 7 7 7 7 7 6 6 6 6 6 6 7 7 7 8 7 7 6 6 6 5
16 17 20 17 11 10 10 10 10 10 10 10 9 8 7 7 7 7 7 8 8 7 7 6 6 6 7 7 7 7 7 6 6 6 6 7 7 6 6 6 7 6 7 8 7 7 6 7 6
18 21 20 14 10 10 10 10 10 10 10 10 10 9 9 8 8 8 8 9 9 8 8 7 7 6 7 7 7 7 6 6 6 7 7 7 7 8 7 7 7 7 7 8 7 7 7 7 6
20 21 17 11 10 10 11 11 11 10 11 12 11 11 10 9 9 9 9 9 9 9 8 8 7 6 7 7 7 6 6 6 7 7 8 8 8 8 8 8 8 7 7 7 7 6 6 5 5
20 18 13 10 10 11 11 12 12 12 12 13 12 12 11 10 10 11 10 10 9 9 9 9 8 8 8 7 7 7 6 6 6 7 8 8 9 8 8 8 8 7 7 7 6 6 5 4 3
19 15 11 10 10 10 11 12 13 13 13 14 13 12 12 11 11 11 11 11 10 10 10 9 8 8 8 8 7 6 7 7 6 7 7 8 8 8 7 7 7 7 7 7 6 4 3 3 3
16 13 10 10 10 10 12 13 13 14 14 14 13 12 12 12 12 12 11 11 10 10 10 9 9 9 8 8 8 7 7 8 7 7 7 7 7 6 7 6 6 6 6 5 5 4 3 2 2
13 11 10 9 10 11 12 13 13 14 14 14 14 13 12 13 13 12 12 11 10 9 9 9 9 9 8 8 8 8 7 7 7 7 7 7 6 6 7 6 6 6 5 4 4 3 2 2 3
9 8 9 10 11 12 13 13 14 14 14 14 14 14 13 13 14 13 12 11 10 10 10 9 9 8 8 8 8 7 7 7 7 7 7 7 7 6 6 6 7 6 5 4 3 3 4 4 4
8 9 10 12 13 13 13 14 15 16 16 15 15 15 14 14 13 13 13 12 11 10 10 10 10 9 8 8 7 7 7 7 7 7 7 7 7 7 7 6 6 5 4 4 4 5 5 4 3
8 9 11 13 14 14 14 15 15 16 16 16 16 16 15 14 14 13 13 12 11 10 10 10 10 10 9 9 9 8 8 7 7 7 7 7 7 6 6 5 4 4 4 3 4 4 4 3 2
9 9 11 13 14 14 14 15 15 16 16 16 15 16 16 15 15 14 14 13 12 11 11 11 11 10 10 9 9 9 8 7 8 8 7 7 6 6 5 5 4 3 4 3 3 4 4 3 2
9 9 11 13 12 13 13 14 15 16 16 16 15 15 16 15 15 15 14 14 13 12 12 11 10 10 10 9 9 9 8 8 8 8 7 7 6 6 5 5 4 3 3 3 3 3 2 2 2
9 9 10 12 11 12 13 14 15 15 15 15 15 15 15 15 15 15 14 14 13 12 12 11 11 10 10 9 9 9 9 9 8 8 7 6 6 6 6 5 4 4 4 3 3 3 2 2 2
9 8 8 10 10 11 12 12 13 13 14 14 15 14 14 14 14 14 14 13 13 12 12 11 11 10 10 9 9 9 9 9 9 8 8 7 7 7 7 6 5 5 5 4 4 3 3 3 3
6 5 5 7 8 7 8 9 11 12 13 13 14 14 14 13 13 13 13 13 12 12 11 11 11 11 10 10 9 9 9 9 8 8 8 8 8 8 7 7 6 6 6 5 4 4 4 4 4
4 3 2 4 5 5 5 7 9 11 12 12 13 13 13 13 13 13 12 12 12 12 11 11 11 11 10 10 9 9 8 8 8 8 7 7 7 7 7 7 6 6 6 5 5 5 5 5 5
4 2 1 1 3 4 4 6 8 10 11 12 12 11 11 11 12 11 12 12 11 11 11 11 10 10 10 10 9 9 8 8 7 7 7 7 6 6 6 6 6 6 6 5 5 5 5 5 5
5 4 2 1 2 3 4 5 7 8 9 9 10 10 10 11 10 10 10 11 11 10 10 10 10 9 9 9 9 9 8 8 7 7 7 6 6 6 6 6 6 6 7 7 6 5 5 5 6
6 5 5 4 1 1 3 5 6 7 8 8 8 9 9 9 9 10 10 10 10 10 9 9 9 9 9 9 9 9 9 8 8 8 7 7 7 6 6 6 7 7 7 6 6 6 5 6 6
7 7 7 5 3 2 4 6 8 7 7 7 8 8 8 9 9 9 9 9 9 9 9 8 8 8 8 9 9 9 9 9 9 8 8 8 8 7 7 7 7 7 7 7 6 6 6 6 6
9 9 8 7 4 3 5 7 8 8 7 8 8 8 7 8 8 8 9 9 8 9 8 8 8 8 8 9 9 9 9 9 9 8 8 8 8 8 8 8 8 8 8 8 7 6 7 7 7
11 8 6 6 5 6 6 6 8 8 8 8 6 7 7 7 7 8 8 8 8 9 9 9 8 8 8 8 9 9 9 9 9 9 9 8 8 9 9 9 9 8 9 8 7 7 8 8 8
12 10 8 7 7 7 7 8 10 9 9 9 7 7 8 7 7 8 8 7 7 8 9 9 9 8 8 8 8 9 9 10 9 10 9 9 9 9 9 9 9 9 9 9 8 8 9 9 8
14 12 9 8 7 8 9 10 12 11 9 10 9 8 8 8 8 8 8 8 8 8 8 9 9 8 8 8 8 9 10 10 10 10 10 10 10 10 10 9 9 9 9 9 9 9 9 9 9
14 13 10 10 9 9 10 10 13 14 12 10 10 10 10 9 10 10 9 8 8 8 8 9 9 8 8 8 9 9 10 10 11 11 11 11 11 11 10 10 10 10 10 10 9 9 9 9 9
16 15 13 13 13 11 12 12 13 15 14 13 11 10 10 9 10 10 10 10 10 9 9 9 9 9 9 9 9 9 10 11 11 12 12 12 12 12 12 11 12 11 11 10 10 9 9 10 10
17 17 17 16 15 13 13 14 14 14 14 15 13 12 12 11 11 11 11 11 11 10 11 10 10 10 10 10 10 11 11 12 11 12 13 13 13 13 13 12 12 12 12 11 11 10 10 10 10
19 19 18 18 17 16 14 15 16 15 15 15 15 14 14 13 13 13 12 12 12 12 11 12 11 12 12 12 12 12 12 12 13 13 13 13 13 13 13 13 13 12 12 12 12 12 11 11 11

GEFSSGP_500_meanwind_276.txt.gz
Wind_Speed
17 17 17 17 17 16 16 16 15 14 14 12 11 10 9 9 9 8 8 8 8 7 7 6 6 6 6 5 4 4 5 5 5 6 5 5 5 5 6 6 6 7 8 9 8 7 7 7 7
17 18 16 17 18 16 17 16 16 15 14 13 12 11 9 9 9 9 9 9 9 8 7 6 6 6 6 5 5 5 5 5 5 6 5 5 5 5 5 6 7 7 8 8 8 7 6 7 6
17 17 17 18 19 18 18 18 17 16 15 14 13 12 10 9 10 9 10 10 10 9 8 7 7 7 6 6 5 5 5 5 6 6 5 5 5 5 5 6 7 7 7 7 7 7 6 6 6
19 19 20 21 20 19 18 18 17 17 16 15 14 12 11 10 10 10 10 10 10 9 8 8 8 7 7 6 6 6 6 6 6 6 5 5 5 5 6 7 7 7 6 6 6 7 6 5 5
21 22 23 21 20 20 18 18 18 17 16 17 16 13 12 12 11 11 11 11 10 9 8 8 8 7 7 7 7 6 6 6 6 6 6 6 5 6 7 7 6 7 6 6 6 5 5 5 6
19 22 22 20 20 19 18 18 18 17 17 17 17 15 13 13 12 12 12 11 10 10 8 8 8 8 8 8 8 7 7 6 7 7 7 6 6 6 6 6 7 7 6 6 5 5 5 6 5
18 21 21 20 19 19 19 19 18 18 17 17 17 16 15 14 13 12 12 11 11 10 9 9 8 8 7 8 8 7 7 7 7 7 7 7 7 7 7 7 7 6 6 6 7 7 6 5 5
20 20 20 19 19 19 20 19 19 19 18 17 17 16 16 16 15 14 13 12 11 11 11 10 9 9 8 9 8 8 7 7 8 8 8 8 7 7 7 7 7 6 6 7 7 7 7 6 5
19 18 18 19 18 19 20 21 20 20 19 18 18 17 17 16 15 14 14 13 12 12 11 10 10 10 10 10 9 9 8 8 8 8 8 8 8 7 7 6 7 7 6 6 6 6 6 6 5
17 16 17 19 18 19 20 21 21 21 20 18 17 17 17 17 16 15 14 13 13 12 11 11 10 10 11 10 9 9 9 9 8 8 8 8 8 8 7 6 6 7 6 6 6 6 6 5 4
15 15 17 19 18 19 20 21 21 21 20 19 18 17 17 17 16 15 15 14 13 11 11 10 11 11 10 10 9 9 9 9 8 8 8 7 7 8 8 8 7 7 7 6 5 5 5 4 3
14 16 17 19 19 19 20 21 21 20 19 19 18 18 17 17 16 15 14 14 13 12 11 11 11 11 10 9 9 9 8 8 8 7 7 7 7 7 7 7 6 6 5 4 4 3 3 4 3
13 15 17 18 19 19 20 21 20 19 19 18 18 18 17 17 16 16 15 14 13 12 12 12 12 11 10 10 9 10 9 8 8 7 8 8 8 7 6 6 5 5 5 4 4 3 2 3 4
14 14 16 17 17 18 18 20 20 19 19 19 18 17 17 17 17 16 15 14 14 13 13 12 12 12 11 10 10 9 9 9 9 9 9 9 8 7 7 6 5 4 4 4 3 3 3 3 3
12 14 14 15 15 16 17 17 18 18 19 18 18 17 16 16 16 16 15 15 14 14 14 13 12 12 11 10 10 9 9 9 9 9 9 8 8 8 7 6 6 5 5 4 3 4 4 4 3
12 12 12 13 13 15 15 15 16 16 17 17 17 16 16 16 15 15 15 15 15 14 14 14 13 13 12 11 10 10 10 10 9 9 9 9 8 8 8 7 6 6 6 5 4 5 5 4 4
10 9 9 9 10 13 13 14 15 15 16 16 16 16 16 15 14 14 14 14 14 14 13 13 14 13 13 12 10 9 9 9 9 9 9 9 9 8 8 7 7 6 6 6 6 6 5 4 4
9 7 6 7 9 10 11 13 13 14 15 15 15 15 15 14 14 14 14 13 13 13 12 13 13 13 12 12 11 10 9 8 8 9 8 8 8 8 8 8 6 6 6 6 6 5 4 3 3
7 5 5 7 8 9 10 10 11 12 14 14 14 14 15 15 15 14 13 13 13 12 12 12 12 12 12 12 11 11 10 9 8 8 8 8 8 8 8 8 7 5 5 6 6 5 4 4 4
6 3 2 4 5 6 8 8 9 10 11 12 12 12 13 14 14 14 13 13 13 13 12 11 11 11 11 12 12 11 10 9 9 9 8 8 8 8 8 8 7 6 6 6 6 5 5 4 4
7 4 2 2 1 2 5 7 7 8 9 10 10 11 12 12 13 14 13 13 13 12 12 11 10 10 11 11 11 11 10 9 9 9 8 8 8 8 8 8 8 6 6 5 5 5 4 4 4
8 6 5 3 2 2 4 5 7 7 8 8 10 10 11 11 12 12 12 13 12 12 11 11 10 10 10 10 10 10 10 9 9 8 8 8 8 7 7 7 7 6 5 5 4 4 4 4 5
7 7 5 4 4 3 3 5 6 7 7 8 9 10 10 10 10 11 11 11 11 11 11 10 9 9 9 10 10 10 10 10 8 8 8 7 7 7 7 7 6 5 5 4 4 4 4 4 4
9 9 8 7 7 6 5 4 5 6 6 7 8 9 8 9 9 10 10 10 10 10 10 9 9 9 9 9 10 10 9 9 8 8 7 7 7 7 7 7 6 5 5 4 4 4 5 4 4
11 11 11 10 9 8 7 7 4 6 6 7 7 7 7 7 8 8 8 8 8 9 9 9 8 8 8 8 8 9 9 9 8 8 8 8 7 7 7 7 6 6 6 5 5 5 5 5 5
14 13 12 11 10 9 9 8 5 6 6 6 6 6 6 5 5 6 6 7 7 7 7 8 8 7 7 7 8 8 8 8 8 8 7 7 8 8 7 7 7 6 6 6 6 6 6 6 6
15 14 12 12 11 11 10 9 7 5 5 6 7 7 6 4 4 5 5 6 7 7 7 7 8 6 6 6 6 7 8 8 8 8 8 8 8 9 8 8 7 7 7 7 7 7 8 8 7
17 15 15 15 14 14 13 11 8 6 5 7 8 8 7 6 5 5 5 6 6 7 7 7 8 8 7 6 6 7 8 8 9 9 9 9 9 9 9 9 8 7 7 8 8 8 8 8 8
18 17 17 15 15 15 14 12 10 9 7 8 8 9 9 8 7 6 6 6 6 8 8 8 8 8 7 7 7 8 9 9 9 10 10 9 9 9 10 9 8 8 8 9 9 8 9 9 10
21 19 17 17 17 18 16 14 12 11 10 10 9 10 9 8 8 8 8 7 8 8 8 9 9 9 9 9 9 9 10 10 10 11 11 10 10 10 11 10 10 9 9 9 10 10 10 10 11

GEFSSGP_500_meanwind_282.txt.gz
Wind_Speed
16 16 16 15 16 15 16 15 15 14 13 12 11 10 9 8 7 7 6 6 6 6 5 5 5 5 5 6 6 6 6 6 6 6 6 6 6 6 6 6 7 7 7 7 7 7 6 6 6
16 16 16 16 17 16 16 17 17 16 14 13 12 11 9 9 8 7 7 6 6 6 6 6 6 6 6 7 7 7 7 6 6 6 6 6 6 6 6 6 6 7 7 6 6 6 6 6 6
16 16 17 17 17 17 17 17 17 16 15 14 13 11 10 10 9 8 7 7 7 7 7 7 7 8 7 7 7 7 7 6 6 6 6 6 6 6 6 7 7 7 7 6 6 6 6 6 5
18 18 17 18 17 17 18 18 18 17 16 15 14 12 11 10 10 9 8 7 7 7 7 8 8 8 8 7 7 7 7 6 6 6 7 6 6 6 7 7 7 7 6 6 5 6 5 4 5
18 18 18 18 17 17 18 18 18 17 17 16 15 13 12 11 10 9 8 7 7 7 8 8 8 8 7 8 7 7 6 5 6 7 7 7 6 6 7 7 7 6 6 6 5 6 5 5 4
18 19 18 18 18 18 18 19 19 18 17 16 15 14 12 11 10 9 8 8 8 8 8 8 8 7 7 8 8 8 8 7 7 8 8 8 7 6 7 6 6 6 6 5 5 5 5 5 4
18 19 19 19 19 19 19 20 20 19 17 16 16 15 13 11 11 10 9 9 9 9 9 8 8 8 8 8 9 9 9 9 8 8 8 7 7 6 6 6 6 6 6 6 5 5 5 5 4
19 19 20 20 19 20 20 20 19 19 17 16 15 14 13 12 11 10 10 10 10 9 9 8 8 8 7 8 9 9 9 8 9 8 8 7 7 6 6 6 7 7 7 6 5 5 5 5 4
18 19 19 20 20 20 20 20 19 18 17 17 15 14 14 13 12 11 11 11 11 10 10 9 9 8 8 8 9 9 9 8 8 8 8 8 7 6 6 6 6 6 6 5 5 5 5 5 4
17 18 18 19 20 20 20 20 19 18 18 17 16 15 15 14 13 12 11 12 12 11 11 10 9 9 9 9 9 8 9 9 9 8 8 8 8 6 6 6 6 6 5 5 5 5 5 4 4
16 17 17 18 18 19 19 20 19 19 18 17 17 16 15 14 13 13 12 12 12 11 11 10 10 9 10 10 9 9 10 10 9 9 8 8 8 8 7 6 5 5 5 4 3 3 5 3 2
15 15 16 17 18 19 19 19 19 19 18 18 17 16 16 15 14 13 13 13 12 11 11 10 9 10 10 10 10 10 10 10 9 9 8 7 6 6 6 6 6 5 4 3 2 2 3 2 2
14 14 16 17 18 19 19 19 19 19 18 17 16 16 17 16 15 14 13 13 12 12 12 11 10 9 9 9 9 9 9 9 8 8 8 7 7 6 5 5 5 5 4 3 2 2 2 2 2
12 14 16 17 17 18 19 18 17 18 17 16 16 16 17 16 15 15 14 13 13 12 12 11 10 10 9 9 9 8 8 7 7 7 7 7 6 6 5 5 5 4 4 4 3 2 2 2 1
11 12 14 15 15 16 16 17 16 16 16 16 16 16 16 15 15 15 14 14 13 13 12 11 10 10 9 9 9 8 7 7 8 7 7 7 6 6 6 6 5 4 4 3 3 2 2 2 1
10 10 12 12 13 14 14 15 15 14 14 14 15 15 15 15 15 15 14 14 13 13 12 12 11 11 10 10 9 9 9 8 8 8 8 7 7 6 6 6 5 4 4 4 4 3 3 3 2
8 9 10 11 12 12 12 14 14 14 13 13 14 14 14 14 14 14 14 14 13 13 12 12 12 12 11 10 10 9 9 9 8 8 8 8 8 7 6 5 5 5 4 4 4 3 3 3 2
6 7 8 10 11 11 11 12 13 12 13 13 13 14 14 13 13 13 14 14 13 13 13 12 12 12 12 11 11 10 10 9 8 8 8 8 8 8 7 6 6 5 4 4 4 3 3 2 2
6 6 7 8 9 9 9 10 11 11 11 12 12 12 12 13 13 13 13 13 13 12 12 12 12 12 12 12 12 11 10 10 9 9 9 8 8 8 7 6 6 5 4 4 3 3 3 2 2
7 6 5 6 6 6 7 8 9 9 10 10 10 11 11 12 12 12 12 13 12 12 12 12 12 12 11 11 11 11 11 10 9 8 9 8 8 7 7 6 6 5 4 3 2 2 2 2 3
8 6 4 2 3 4 4 5 5 7 7 8 9 9 10 11 11 11 11 12 12 11 11 11 11 11 10 10 10 10 10 10 9 8 8 8 7 6 6 5 5 5 4 3 3 3 3 2 3
8 6 4 3 1 1 2 3 4 5 5 6 7 8 9 9 9 9 10 10 11 11 10 10 10 10 10 9 9 8 8 9 8 8 7 7 7 6 6 6 5 5 4 4 4 3 3 3 3
9 8 6 5 3 2 2 3 2 3 4 5 6 7 7 8 8 8 8 9 9 9 10 9 9 9 9 8 8 7 7 7 7 7 6 6 6 6 6 6 6 6 5 4 4 4 4 4 4
11 9 8 7 6 5 4 4 3 3 2 3 4 5 5 6 6 6 7 7 8 8 8 8 8 8 8 8 7 7 6 6 6 5 6 6 6 6 6 6 6 6 6 5 6 5 5 5 5
13 11 10 8 8 6 6 5 4 4 3 2 3 3 4 4 5 5 6 7 7 7 7 7 7 7 7 7 7 7 7 6 6 5 5 6 6 6 6 6 7 7 7 7 7 7 7 7 7
15 13 13 11 10 9 8 7 5 5 5 4 3 2 3 3 3 4 4 5 6 6 6 7 7 6 7 7 7 7 7 7 6 6 6 6 6 7 8 8 8 7 8 8 8 9 9 9 9
16 15 14 13 12 12 11 9 7 7 7 6 4 3 2 2 1 1 2 3 4 5 5 6 7 6 7 7 7 7 7 7 7 6 6 7 8 8 9 9 9 9 9 9 9 9 9 10 10
18 17 17 15 14 14 12 11 10 9 8 7 6 5 4 3 3 3 3 4 5 5 5 6 7 7 7 8 7 7 8 8 8 7 8 8 8 9 11 11 11 9 9 10 10 10 10 10 10
20 20 19 17 16 15 15 13 11 11 11 9 8 7 6 5 5 4 4 5 5 6 7 7 8 8 8 9 8 9 9 10 10 10 11 10 10 11 11 11 11 10 10 10 11 11 11 10 11
23 22 21 21 19 18 17 15 13 13 12 11 10 8 8 8 7 7 7 7 7 7 8 8 9 9 10 10 10 10 11 11 12 12 12 12 12 13 13 12 12 11 12 12 12 12 11 12 12

GEFSSGP_500_meanwind_288.txt.gz
Wind_Speed
15 15 15 14 16 15 13 13 13 13 12 12 12 11 10 9 9 9 8 8 8 7 6 5 5 5 6 6 6 6 6 7 7 7 7 7 8 8 8 8 8 8 7 8 8 8 8 8 7
15 15 15 15 16 13 13 14 14 13 13 12 12 11 10 10 9 9 9 8 8 7 7 6 6 6 7 6 6 6 6 7 7 6 7 7 8 8 8 9 9 8 7 7 8 8 8 8 7
16 15 15 16 15 14 13 13 14 14 13 12 12 11 11 10 10 10 9 9 9 8 7 7 6 7 7 7 7 7 7 7 7 6 6 6 7 7 9 9 9 8 7 7 7 7 8 7 7
16 16 16 15 14 14 14 14 14 14 13 13 12 11 11 10 9 9 9 9 9 8 7 7 6 7 7 7 7 7 8 8 8 7 7 7 7 8 9 9 8 7 7 7 7 7 7 7 6
17 17 16 14 13 14 14 14 14 13 13 13 13 12 11 10 9 9 9 9 8 8 7 7 7 7 7 8 8 8 8 8 8 8 8 7 8 8 8 8 8 7 7 7 7 7 7 7 5
17 17 16 14 13 13 14 13 13 13 13 13 13 13 12 10 9 9 9 9 8 8 8 7 7 7 8 8 9 9 8 8 8 8 8 8 8 8 8 7 7 6 6 6 6 6 7 7 6
18 17 16 15 14 14 14 14 13 13 14 13 13 13 12 11 11 10 10 9 8 8 8 8 7 7 7 8 9 8 8 8 8 8 8 8 8 7 7 7 6 6 6 6 7 6 6 6 5
17 17 16 16 15 15 15 14 14 14 14 13 12 13 12 12 12 11 11 9 8 9 9 9 8 8 8 8 9 8 8 8 8 8 8 7 7 7 6 6 5 5 4 5 6 7 6 7 5
18 17 15 16 16 15 16 15 14 14 13 13 12 13 12 12 12 11 10 9 9 10 10 9 8 8 8 8 8 8 8 8 8 8 7 8 7 6 5 5 4 4 4 5 6 8 7 7 6
17 15 15 15 16 16 16 16 16 15 14 13 13 12 13 12 12 11 11 10 10 10 10 9 8 8 8 8 8 8 8 8 7 7 7 7 7 6 5 5 4 4 5 6 7 7 7 7 6
15 14 14 15 16 16 16 16 16 15 15 14 13 12 13 13 12 11 11 11 10 10 10 9 9 8 8 8 8 8 8 7 7 6 6 6 6 6 5 5 5 5 5 6 6 5 5 6 6
13 13 14 14 15 16 16 16 16 16 15 15 14 13 13 12 12 12 11 11 11 10 9 9 8 8 8 8 8 8 8 8 7 7 7 6 6 5 4 4 4 4 4 6 6 5 5 5 5
12 12 13 13 15 15 15 15 15 15 15 15 15 14 13 13 12 12 12 11 11 10 9 8 8 8 8 8 8 8 7 7 7 7 7 6 5 5 5 4 4 4 4 5 5 5 4 4 4
11 11 12 13 14 15 15 15 15 15 15 14 14 14 14 13 13 13 12 12 11 11 10 9 8 8 7 7 7 7 7 7 7 7 6 6 5 5 5 5 5 5 5 5 5 5 4 3 3
11 11 11 12 13 14 15 15 15 14 14 14 14 14 14 13 13 13 12 12 12 11 11 10 9 9 8 7 7 7 7 7 7 7 6 6 6 6 5 5 6 6 5 5 4 3 3 2 2
11 11 10 10 12 12 13 13 13 13 13 13 13 13 13 13 12 12 12 12 11 11 11 10 9 9 8 7 7 7 7 7 7 7 6 6 7 7 6 6 6 6 5 4 4 3 2 1 2
9 9 8 9 10 11 12 12 12 12 12 12 12 12 12 13 12 12 11 11 11 11 11 10 9 9 8 8 8 8 8 7 7 7 7 7 7 6 6 6 6 5 5 4 3 2 1 0 1
7 8 7 8 9 10 10 10 10 11 11 11 10 11 11 11 12 11 11 11 11 11 11 11 10 9 9 9 8 8 8 8 8 7 7 7 7 7 7 6 5 5 4 4 3 2 2 2 1
8 7 6 6 7 8 9 9 9 9 9 9 10 9 10 10 11 11 11 10 10 10 10 10 10 10 10 10 9 9 8 8 8 8 7 7 6 6 6 6 5 4 4 3 3 3 3 2 2
7 6 5 5 5 6 7 7 7 7 8 8 8 8 9 9 9 10 10 10 10 10 10 10 10 10 10 9 9 8 9 9 9 8 7 7 6 6 5 5 4 4 3 2 2 1 1 2 2
6 6 5 3 4 4 5 6 6 5 6 7 7 7 7 8 8 9 9 9 9 8 9 9 9 9 9 9 8 8 8 9 8 8 7 6 6 5 5 5 4 4 3 2 2 2 3 3 3
7 6 4 2 2 2 3 3 4 4 4 5 6 6 6 6 7 7 7 7 7 7 7 8 8 8 8 8 7 7 7 7 7 7 6 5 5 5 5 5 5 4 4 3 3 3 4 4 4
9 6 4 3 1 1 1 2 2 2 2 3 4 5 5 5 6 6 6 6 6 6 6 7 7 7 7 7 6 6 6 6 6 6 6 5 5 5 5 5 5 5 5 5 5 5 5 5 5
9 7 5 3 3 3 2 0 1 1 1 1 2 3 3 4 4 5 5 5 6 6 6 6 6 6 6 6 5 5 5 4 5 5 5 5 6 6 6 6 6 6 6 6 6 7 7 7 6
11 8 5 5 5 5 4 3 3 2 1 1 2 2 2 2 3 4 4 4 5 5 5 6 6 6 5 4 5 5 5 5 4 5 5 5 5 6 7 7 7 8 8 7 8 8 9 8 8
12 10 8 7 6 6 6 5 4 4 3 2 2 3 2 2 2 2 4 4 5 5 5 5 5 5 5 5 5 5 6 6 6 6 6 6 6 7 7 8 9 9 9 9 10 10 10 10 9
15 13 11 9 8 6 7 6 5 5 4 4 4 3 3 3 3 3 3 4 4 5 5 5 5 5 5 6 5 6 6 7 7 7 8 8 8 9 9 9 10 11 10 11 11 11 11 10 10
17 15 13 11 10 8 8 7 6 6 6 6 6 6 5 5 5 5 5 5 5 6 6 6 6 6 6 7 7 7 8 8 8 9 9 10 10 10 10 11 11 12 12 12 13 13 12 11 11
19 18 15 14 12 10 10 10 9 8 8 8 8 8 7 7 7 7 7 7 7 7 7 8 8 8 8 8 9 9 10 10 11 11 11 11 11 12 12 13 13 14 14 14 14 13 13 12 12
21 19 18 16 16 14 12 12 11 10 9 9 9 9 9 9 9 9 9 8 9 9 9 9 9 9 10 11 11 11 11 12 12 12 12 13 13 14 15 15 15 15 15 15 15 14 14 13 14

GEFSSGP_500_meanwind_294.txt.gz
Wind_Speed
16 16 15 14 14 13 10 8 6 7 6 6 5 4 4 3 3 2 2 2 2 2 2 3 2 2 2 3 3 4 4 5 5 5 5 6 6 6 6 6 5 5 5 5 5 5 6 5 4
16 15 15 16 14 10 9 8 7 7 5 5 5 5 4 3 3 3 2 2 2 2 2 3 3 2 3 3 3 3 4 4 4 4 5 6 6 5 5 6 5 5 5 4 3 4 5 4 4
16 15 17 16 11 9 9 8 7 7 5 5 5 5 5 4 3 3 3 3 3 3 3 3 3 3 3 3 2 3 3 3 3 4 5 5 6 5 5 5 5 5 5 4 4 3 4 3 3
16 18 18 14 10 9 9 8 7 6 6 6 5 5 5 4 4 3 3 3 4 4 3 3 4 3 3 2 2 2 2 3 3 3 4 6 6 6 6 6 6 5 4 4 4 4 4 3 2
18 19 16 12 10 10 9 8 7 6 6 6 6 5 5 5 4 4 4 4 4 4 4 4 4 3 3 3 3 2 2 2 3 3 3 6 6 6 6 6 5 5 5 4 4 4 3 3 2
20 18 14 11 10 9 9 8 8 7 7 6 6 5 5 5 4 4 4 4 4 4 5 4 4 3 3 3 4 4 3 4 4 3 3 5 6 6 6 5 5 5 4 4 3 3 3 3 3
18 15 12 10 11 10 9 9 8 7 7 7 7 6 6 6 5 5 5 4 4 5 5 5 5 5 4 5 5 5 5 5 4 4 4 4 4 5 5 5 4 4 3 2 3 3 3 3 4
16 12 11 9 10 10 10 9 8 8 7 7 7 7 7 6 6 5 5 5 6 6 6 5 6 6 5 6 5 5 6 5 4 4 4 4 4 4 4 4 3 3 3 3 3 3 2 3 4
13 11 10 9 10 10 10 9 9 9 9 8 7 8 7 7 6 5 5 6 7 7 7 6 6 6 6 6 6 6 6 5 5 4 5 5 4 5 4 3 2 3 3 3 3 3 3 3 3
11 10 9 9 10 10 10 10 10 11 10 10 9 9 9 8 8 7 7 7 7 7 6 6 7 7 6 6 5 5 6 6 5 4 5 4 4 4 4 3 2 2 2 3 3 3 3 3 3
9 8 9 10 10 11 11 11 11 11 11 10 10 10 9 9 9 9 8 7 7 7 7 7 7 7 6 6 5 5 6 6 6 5 4 4 3 3 3 3 2 3 3 3 3 4 3 3 3
7 8 8 9 10 10 11 12 12 12 11 11 10 9 10 10 9 9 8 8 7 7 7 7 8 7 6 6 5 5 6 6 6 6 4 4 4 3 3 4 4 3 3 4 3 4 4 3 2
8 8 9 10 11 11 12 12 12 13 13 11 10 10 11 10 10 10 9 9 8 7 8 7 7 7 7 6 6 5 6 6 6 6 5 5 5 5 4 3 3 3 2 2 2 2 3 2 2
8 9 10 10 11 12 12 12 12 13 13 12 11 11 11 11 11 11 10 9 9 8 8 7 7 7 7 7 7 6 7 7 7 7 7 6 6 5 5 4 3 3 3 3 3 3 2 1 1
9 10 10 10 11 11 11 11 13 12 12 13 12 12 11 11 11 11 11 10 10 9 8 8 8 8 8 7 7 7 7 7 7 7 7 7 6 6 5 5 5 4 4 4 4 4 3 2 1
9 10 8 9 9 11 12 12 13 12 12 12 12 12 12 12 12 11 11 11 11 10 8 8 8 8 8 7 7 7 7 7 7 8 8 7 7 7 6 6 6 5 4 4 4 3 2 2 1
7 7 7 7 7 8 9 10 12 11 11 12 12 12 12 12 12 11 11 11 11 10 9 9 8 8 8 8 7 7 7 6 6 7 8 7 7 7 7 6 6 6 6 5 4 3 2 3 2
4 5 4 5 5 7 7 8 11 10 10 11 12 12 12 12 12 11 11 10 11 10 10 10 9 9 9 9 8 7 7 7 7 7 7 7 7 7 7 6 6 6 5 4 4 4 3 3 3
2 3 3 1 4 6 7 8 10 10 10 11 11 11 12 12 12 11 11 10 10 10 10 10 10 9 9 8 8 7 6 6 6 5 6 7 7 7 6 6 7 6 5 5 4 5 4 4 4
3 2 2 1 4 5 5 7 8 10 10 9 9 10 10 11 11 11 11 10 10 10 10 11 11 10 10 9 9 8 6 6 5 5 5 6 6 6 6 6 6 6 6 5 5 5 5 5 5
4 3 3 0 2 4 4 5 8 10 9 8 8 9 9 9 10 10 11 11 10 10 10 10 11 11 10 10 10 10 8 7 6 6 5 5 6 6 7 7 7 7 7 7 7 6 6 6 6
5 4 5 3 1 2 4 5 7 7 9 8 7 8 8 9 9 10 10 10 10 10 10 10 11 11 11 10 9 9 8 8 8 7 7 6 7 7 8 7 7 7 7 7 7 7 7 7 7
7 7 7 5 3 2 3 5 6 6 6 7 6 6 7 7 8 8 9 9 10 10 10 10 10 10 10 10 9 9 9 8 8 8 8 8 7 7 8 8 8 7 7 7 8 8 7 7 7
7 6 5 3 3 4 4 5 6 7 7 7 7 5 6 7 7 7 8 9 9 10 10 9 9 10 10 10 10 9 9 9 9 9 9 8 8 8 8 8 9 8 7 8 8 9 8 8 8
9 7 5 5 6 5 4 6 8 10 10 9 7 5 5 6 7 7 8 9 9 10 10 10 10 10 10 10 10 10 10 10 9 9 9 9 10 9 9 10 10 9 9 9 9 9 9 9 9
10 10 6 6 4 3 6 8 8 10 11 10 7 5 5 6 6 6 7 8 8 9 10 10 10 11 11 11 10 10 10 10 10 10 10 10 11 11 10 10 10 10 11 11 11 11 11 10 10
12 10 7 8 7 6 8 10 10 10 10 10 9 8 7 7 7 7 8 7 8 8 9 10 10 11 12 12 11 11 11 11 11 12 12 12 11 12 12 12 12 12 12 12 12 13 12 12 11
14 11 10 11 10 10 10 11 11 10 10 11 10 9 7 8 8 8 9 9 9 9 10 10 11 11 12 13 13 12 12 13 13 14 14 13 13 13 13 14 14 13 13 14 14 14 14 13 13
15 14 14 14 13 11 11 11 11 10 11 12 11 11 10 8 10 10 11 11 11 11 11 11 12 12 12 13 14 13 13 14 14 15 15 15 15 15 15 15 15 15 15 15 16 16 16 15 14
17 16 16 16 15 14 15 16 11 10 12 13 12 12 13 11 12 11 12 12 12 12 12 12 12 13 13 14 15 14 15 15 16 16 16 17 17 16 16 16 16 16 16 16 16 16 16 17 16

GEFSSGP_500_meanwind_300.txt.gz
Wind_Speed
16 15 14 13 11 11 11 11 11 10 10 9 8 8 8 7 6 5 5 5 5 4 5 5 5 4 4 4 4 3 4 4 5 5 5 5 4 4 4 4 4 4 4 4 4 5 5 5 4
16 15 16 14 13 11 11 10 11 11 10 9 8 8 7 7 6 6 5 5 5 5 5 4 4 4 3 3 3 3 3 3 4 4 4 5 4 4 4 4 5 4 4 4 4 4 5 4 3
17 17 16 15 16 13 12 11 11 11 11 10 8 8 7 7 7 6 5 5 5 5 5 5 5 4 3 3 2 2 2 2 3 3 3 4 4 4 4 4 4 4 4 3 4 4 5 5 4
18 16 16 16 16 15 14 12 11 11 10 9 9 8 8 8 7 6 6 5 5 6 6 6 6 4 4 4 3 2 2 1 2 2 3 4 4 4 4 3 3 3 4 3 4 4 5 5 4
17 17 18 17 16 15 15 14 11 11 10 10 9 9 9 8 7 7 6 6 5 6 6 6 6 5 4 4 3 2 2 1 2 2 3 3 3 4 4 4 4 4 4 4 4 5 5 5 4
18 18 19 18 16 15 15 14 13 11 10 10 9 9 9 9 8 8 7 7 6 6 6 7 7 6 5 5 4 4 2 1 2 2 3 3 3 3 3 4 4 4 4 4 5 5 5 4 4
17 19 18 17 16 16 14 14 13 12 11 10 9 9 9 9 9 8 8 8 7 7 7 7 7 7 6 6 5 4 4 3 2 3 3 3 3 3 3 3 3 4 4 4 5 5 5 4 4
17 18 18 17 16 16 15 14 13 12 11 10 9 9 10 9 9 9 9 9 8 8 8 8 7 7 6 5 5 5 5 4 3 3 4 3 3 3 3 3 3 3 3 4 4 4 4 4 4
16 17 17 17 17 17 16 15 14 13 12 11 10 11 11 10 10 10 9 9 8 8 9 9 8 8 7 6 5 5 5 6 5 4 3 3 3 3 2 2 2 2 3 4 4 4 4 3 4
16 17 17 17 18 18 17 16 16 15 13 12 12 11 11 11 10 9 9 9 8 9 10 9 9 9 8 8 7 6 6 6 6 5 4 3 3 3 2 2 2 2 3 3 4 2 3 3 4
15 15 16 17 17 17 17 17 16 16 13 12 13 12 11 11 10 10 9 8 8 9 9 9 9 9 9 8 8 8 7 7 7 6 5 4 4 3 2 2 2 2 3 3 3 2 3 3 3
13 14 15 16 17 18 18 18 18 16 15 14 14 13 12 11 11 10 10 10 10 10 10 10 10 10 10 9 9 8 8 8 7 6 6 5 5 5 4 4 3 3 2 3 3 3 3 3 3
13 15 15 16 17 18 18 18 18 17 16 16 15 13 12 12 12 11 11 11 11 11 11 10 11 11 10 9 8 8 8 8 7 7 6 6 6 5 5 5 4 3 3 3 3 3 3 3 3
13 14 16 17 18 18 18 17 16 17 17 16 15 14 13 13 13 13 12 11 11 11 11 11 11 11 10 9 9 8 7 7 7 7 7 6 6 6 5 4 4 3 3 4 3 3 3 3 3
12 13 15 16 17 17 17 17 16 17 16 16 15 15 14 14 14 14 13 12 11 11 12 11 11 11 10 10 9 8 7 6 7 7 6 6 5 5 5 4 3 3 3 2 2 3 2 2 2
12 12 13 14 15 15 16 17 17 17 16 16 15 15 15 15 14 14 14 13 11 11 11 11 11 10 9 10 9 8 7 6 6 6 6 6 5 4 4 4 3 3 2 2 2 2 1 1 1
10 10 11 12 13 14 15 15 16 16 16 16 15 15 15 15 14 14 13 13 12 11 11 11 11 10 9 9 9 8 7 6 5 5 5 5 4 4 3 3 3 3 3 2 2 1 1 1 1
9 9 8 9 10 11 12 13 13 15 15 15 14 14 14 14 14 14 14 14 13 13 12 11 10 10 9 9 9 8 7 6 5 5 5 5 4 4 3 3 2 2 2 3 2 2 1 1 1
7 5 6 6 6 7 8 10 11 12 13 14 14 14 14 14 13 14 14 14 14 13 12 11 10 10 9 9 9 9 8 7 6 6 6 6 5 4 3 3 3 3 3 3 2 2 2 2 1
6 5 5 3 2 3 5 7 9 10 12 12 12 12 12 13 13 13 14 13 13 13 12 11 11 10 9 9 9 9 8 7 7 5 6 6 7 6 4 4 5 5 5 4 3 3 3 3 3
6 4 3 2 3 2 3 6 7 9 9 10 10 11 11 12 12 12 13 13 12 12 12 12 12 11 10 9 10 10 9 8 7 7 7 7 6 6 6 5 5 5 5 5 5 4 4 4 4
6 4 3 2 1 1 1 4 5 5 7 8 9 10 10 11 11 11 12 12 12 12 11 12 12 12 11 10 10 10 9 9 8 8 7 6 7 7 7 7 7 5 5 6 5 4 4 4 5
6 5 4 4 3 2 3 5 4 4 6 7 8 9 9 9 9 10 10 10 11 11 11 11 12 12 11 11 10 10 9 9 9 9 8 7 7 7 7 7 7 6 6 6 5 5 5 6 6
8 8 6 6 6 5 4 6 4 3 4 5 7 7 7 8 8 8 9 9 9 10 10 10 11 11 11 11 10 10 10 10 10 10 9 8 7 7 7 7 7 7 7 7 7 7 7 7 8
10 11 9 8 8 6 6 6 4 3 2 3 6 6 6 6 6 6 7 8 7 8 9 10 10 11 11 11 11 10 10 10 10 10 10 9 8 8 8 8 8 8 8 8 9 9 9 9 10
10 12 12 11 8 6 7 7 5 3 2 3 4 6 6 6 6 6 6 7 6 7 8 9 10 10 11 11 10 10 10 10 10 10 10 10 10 10 10 10 10 10 10 10 10 10 10 11 11
11 12 13 12 11 10 8 8 7 4 3 4 5 5 5 5 5 6 6 6 6 6 7 8 9 9 10 10 10 10 10 11 11 11 11 12 12 11 11 11 11 11 11 12 11 11 11 12 11
13 12 13 14 12 11 10 9 7 5 5 6 7 7 6 6 6 7 7 7 6 7 7 8 9 9 10 10 10 10 11 11 11 12 12 13 12 12 12 13 12 12 13 13 13 13 12 12 12
16 16 15 15 15 14 13 11 8 7 7 6 6 7 7 8 8 8 8 8 7 8 8 9 10 10 10 10 11 11 11 12 12 12 13 13 13 13 13 14 14 14 15 15 15 14 14 14 14
19 18 18 17 16 16 15 14 11 11 10 8 7 9 9 10 10 9 9 9 9 9 9 10 11 11 11 11 12 12 13 13 13 13 13 13 13 14 14 15 16 16 16 16 16 15 15 15 16